Time,TemperatureF,DewpointF,PressureIn,WindDirection,WindDirectionDegrees,WindSpeedMPH,WindSpeedGustMPH,Humidity,HourlyPrecipIn,Conditions,Clouds,dailyrainin,SoftwareType,DateUTC
2013-06-11 00:01:00,78.8,71.7,29.85,SE,144,0.0,0.0,79,0.00,,,0.01,Wunderground v.1.15,2013-06-11 05:01:00,
2013-06-11 00:04:00,78.6,71.5,29.85,SE,144,0.0,1.0,79,0.00,,,0.00,Wunderground v.1.15,2013-06-11 05:04:00,
2013-06-11 00:06:00,78.6,71.9,29.85,SE,144,0.0,1.0,80,0.00,,,0.00,Wunderground v.1.15,2013-06-11 05:06:00,
2013-06-11 00:08:00,78.5,71.8,29.85,SE,145,0.0,1.0,80,0.00,,,0.00,Wunderground v.1.15,2013-06-11 05:08:00,
2013-06-11 00:11:00,78.5,71.8,29.85,SSE,147,1.0,1.0,80,0.00,,,0.00,Wunderground v.1.15,2013-06-11 05:11:00,
2013-06-11 00:13:00,78.5,72.2,29.85,SSW,193,1.0,3.0,81,0.00,,,0.00,Wunderground v.1.15,2013-06-11 05:13:00,
2013-06-11 00:17:00,78.5,72.2,29.85,SSW,196,3.0,4.0,81,0.00,,,0.00,Wunderground v.1.15,2013-06-11 05:17:00,
2013-06-11 00:18:00,78.5,72.2,29.85,SSW,202,3.0,4.0,81,0.00,,,0.00,Wunderground v.1.15,2013-06-11 05:18:00,
2013-06-11 00:21:00,78.5,72.2,29.85,South,174,4.0,8.0,81,0.00,,,0.00,Wunderground v.1.15,2013-06-11 05:21:00,
2013-06-11 00:23:00,78.5,72.2,29.85,South,185,4.0,4.0,81,0.00,,,0.00,Wunderground v.1.15,2013-06-11 05:23:00,
2013-06-11 00:24:00,78.5,72.2,29.85,South,185,4.0,4.0,81,0.00,,,0.00,Wunderground v.1.15,2013-06-11 05:24:00,
2013-06-11 00:29:00,78.5,72.5,29.85,ESE,114,3.0,5.0,82,0.00,,,0.00,Wunderground v.1.15,2013-06-11 05:29:00,
2013-06-11 00:32:00,78.5,72.5,29.85,SSE,165,3.0,3.0,82,0.00,,,0.00,Wunderground v.1.15,2013-06-11 05:32:00,
2013-06-11 00:33:00,78.5,72.5,29.85,SSE,165,3.0,3.0,82,0.00,,,0.00,Wunderground v.1.15,2013-06-11 05:33:00,
2013-06-11 00:34:00,78.5,72.5,29.85,South,179,3.0,5.0,82,0.00,,,0.00,Wunderground v.1.15,2013-06-11 05:34:00,
2013-06-11 00:35:00,78.3,72.3,29.85,South,179,3.0,5.0,82,0.00,,,0.00,Wunderground v.1.15,2013-06-11 05:35:00,
2013-06-11 00:36:00,78.3,72.3,29.85,SSE,168,3.0,5.0,82,0.00,,,0.00,Wunderground v.1.15,2013-06-11 05:36:00,
2013-06-11 00:39:00,78.3,72.3,29.85,ESE,121,3.0,5.0,82,0.00,,,0.00,Wunderground v.1.15,2013-06-11 05:39:00,
2013-06-11 00:41:00,78.3,72.3,29.85,SE,138,3.0,3.0,82,0.00,,,0.00,Wunderground v.1.15,2013-06-11 05:41:00,
2013-06-11 00:42:00,78.3,72.3,29.85,SE,145,3.0,7.0,82,0.00,,,0.00,Wunderground v.1.15,2013-06-11 05:42:00,
2013-06-11 00:43:00,78.3,72.3,29.85,South,179,3.0,7.0,82,0.00,,,0.00,Wunderground v.1.15,2013-06-11 05:43:00,
2013-06-11 00:45:00,78.3,72.7,29.85,SSE,155,3.0,7.0,83,0.00,,,0.00,Wunderground v.1.15,2013-06-11 05:45:00,
2013-06-11 00:46:00,78.3,72.7,29.85,SSE,162,3.0,7.0,83,0.00,,,0.00,Wunderground v.1.15,2013-06-11 05:46:00,
2013-06-11 00:47:00,78.3,72.7,29.85,SSE,157,2.0,7.0,83,0.00,,,0.00,Wunderground v.1.15,2013-06-11 05:47:00,
2013-06-11 00:48:00,78.3,72.7,29.85,SSW,195,2.0,7.0,83,0.00,,,0.00,Wunderground v.1.15,2013-06-11 05:48:00,
2013-06-11 00:53:00,78.1,72.5,29.85,SE,137,3.0,3.0,83,0.00,,,0.00,Wunderground v.1.15,2013-06-11 05:53:00,
2013-06-11 00:54:00,78.1,72.5,29.85,SSE,154,3.0,3.0,83,0.00,,,0.00,Wunderground v.1.15,2013-06-11 05:54:00,
2013-06-11 00:55:00,78.1,72.5,29.85,SSE,158,3.0,3.0,83,0.00,,,0.00,Wunderground v.1.15,2013-06-11 05:55:00,
2013-06-11 00:58:00,78.1,72.5,29.85,SSE,158,2.0,3.0,83,0.00,,,0.00,Wunderground v.1.15,2013-06-11 05:58:00,
2013-06-11 01:01:00,78.1,72.9,29.85,South,169,2.0,5.0,84,0.00,,,0.00,Wunderground v.1.15,2013-06-11 06:01:00,
2013-06-11 01:02:00,77.9,72.7,29.85,SSE,147,2.0,7.0,84,0.00,,,0.00,Wunderground v.1.15,2013-06-11 06:02:00,
2013-06-11 01:04:00,77.9,72.7,29.85,SE,138,2.0,7.0,84,0.00,,,0.00,Wunderground v.1.15,2013-06-11 06:04:00,
2013-06-11 01:06:00,77.9,72.7,29.85,SSE,168,3.0,7.0,84,0.00,,,0.00,Wunderground v.1.15,2013-06-11 06:06:00,
2013-06-11 01:08:00,77.9,72.7,29.85,SSE,154,3.0,7.0,84,0.00,,,0.00,Wunderground v.1.15,2013-06-11 06:08:00,
2013-06-11 01:11:00,77.7,72.5,29.85,SE,145,2.0,5.0,84,0.00,,,0.00,Wunderground v.1.15,2013-06-11 06:11:00,
2013-06-11 01:15:00,77.7,72.8,29.85,SE,145,1.0,5.0,85,0.00,,,0.00,Wunderground v.1.15,2013-06-11 06:15:00,
2013-06-11 01:16:00,77.7,72.8,29.85,SE,145,1.0,5.0,85,0.00,,,0.00,Wunderground v.1.15,2013-06-11 06:16:00,
2013-06-11 01:18:00,77.7,72.8,29.85,SSE,148,1.0,5.0,85,0.00,,,0.00,Wunderground v.1.15,2013-06-11 06:18:00,
2013-06-11 01:19:00,77.7,72.8,29.85,SSE,148,1.0,5.0,85,0.00,,,0.00,Wunderground v.1.15,2013-06-11 06:19:00,
2013-06-11 01:23:00,77.4,72.5,29.85,SE,143,2.0,5.0,85,0.00,,,0.00,Wunderground v.1.15,2013-06-11 06:23:00,
2013-06-11 01:24:00,77.4,72.5,29.85,SSE,161,2.0,5.0,85,0.00,,,0.00,Wunderground v.1.15,2013-06-11 06:24:00,
2013-06-11 01:27:00,77.4,72.2,29.85,SE,144,3.0,5.0,84,0.00,,,0.00,Wunderground v.1.15,2013-06-11 06:27:00,
2013-06-11 01:29:00,77.4,72.2,29.85,SSE,154,4.0,5.0,84,0.00,,,0.00,Wunderground v.1.15,2013-06-11 06:29:00,
2013-06-11 01:31:00,77.2,72.0,29.85,SE,130,4.0,4.0,84,0.00,,,0.00,Wunderground v.1.15,2013-06-11 06:31:00,
2013-06-11 01:33:00,77.2,72.0,29.86,SSE,147,3.0,5.0,84,0.00,,,0.00,Wunderground v.1.15,2013-06-11 06:33:00,
2013-06-11 01:34:00,77.2,72.0,29.86,SSE,147,3.0,5.0,84,0.00,,,0.00,Wunderground v.1.15,2013-06-11 06:34:00,
2013-06-11 01:35:00,77.2,72.0,29.86,SE,131,3.0,5.0,84,0.00,,,0.00,Wunderground v.1.15,2013-06-11 06:35:00,
2013-06-11 01:36:00,77.2,72.0,29.86,SE,143,3.0,6.0,84,0.00,,,0.00,Wunderground v.1.15,2013-06-11 06:36:00,
2013-06-11 01:39:00,77.2,72.3,29.86,SSE,165,3.0,6.0,85,0.00,,,0.00,Wunderground v.1.15,2013-06-11 06:39:00,
2013-06-11 01:41:00,77.2,72.3,29.86,SSE,160,3.0,3.0,85,0.00,,,0.00,Wunderground v.1.15,2013-06-11 06:41:00,
2013-06-11 01:42:00,77.2,72.3,29.86,SSE,162,3.0,3.0,85,0.00,,,0.00,Wunderground v.1.15,2013-06-11 06:42:00,
2013-06-11 01:44:00,77.0,72.1,29.86,ESE,121,3.0,3.0,85,0.00,,,0.00,Wunderground v.1.15,2013-06-11 06:44:00,
2013-06-11 01:46:00,77.0,72.1,29.86,SE,124,2.0,3.0,85,0.00,,,0.00,Wunderground v.1.15,2013-06-11 06:46:00,
2013-06-11 01:47:00,77.0,72.1,29.86,SE,126,2.0,3.0,85,0.00,,,0.00,Wunderground v.1.15,2013-06-11 06:47:00,
2013-06-11 01:49:00,77.0,72.1,29.86,SE,124,2.0,3.0,85,0.00,,,0.00,Wunderground v.1.15,2013-06-11 06:49:00,
2013-06-11 01:52:00,77.0,72.1,29.86,South,175,2.0,6.0,85,0.00,,,0.00,Wunderground v.1.15,2013-06-11 06:52:00,
2013-06-11 01:53:00,76.8,71.9,29.86,SSE,154,2.0,6.0,85,0.00,,,0.00,Wunderground v.1.15,2013-06-11 06:53:00,
2013-06-11 01:54:00,76.8,71.9,29.86,SSE,155,2.0,6.0,85,0.00,,,0.00,Wunderground v.1.15,2013-06-11 06:54:00,
2013-06-11 01:57:00,76.8,72.3,29.86,SSE,154,1.0,6.0,86,0.00,,,0.00,Wunderground v.1.15,2013-06-11 06:57:00,
2013-06-11 01:58:00,76.8,72.3,29.86,SSE,155,1.0,6.0,86,0.00,,,0.00,Wunderground v.1.15,2013-06-11 06:58:00,
2013-06-11 01:59:00,76.8,72.3,29.86,SSE,155,1.0,6.0,86,0.00,,,0.00,Wunderground v.1.15,2013-06-11 06:59:00,
2013-06-11 02:02:00,76.7,72.2,29.86,SSE,158,1.0,2.0,86,0.00,,,0.00,Wunderground v.1.15,2013-06-11 07:02:00,
2013-06-11 02:03:00,76.7,72.2,29.86,SSE,158,1.0,2.0,86,0.00,,,0.00,Wunderground v.1.15,2013-06-11 07:03:00,
2013-06-11 02:07:00,76.5,72.0,29.86,SSE,158,1.0,2.0,86,0.00,,,0.00,Wunderground v.1.15,2013-06-11 07:07:00,
2013-06-11 02:08:00,76.5,72.0,29.86,SSE,158,1.0,2.0,86,0.00,,,0.00,Wunderground v.1.15,2013-06-11 07:08:00,
2013-06-11 02:09:00,76.5,72.0,29.86,SSE,158,1.0,2.0,86,0.00,,,0.00,Wunderground v.1.15,2013-06-11 07:09:00,
2013-06-11 02:11:00,76.3,71.8,29.86,SSE,158,1.0,1.0,86,0.00,,,0.00,Wunderground v.1.15,2013-06-11 07:11:00,
2013-06-11 02:13:00,76.3,72.1,29.86,SSE,158,0.0,1.0,87,0.00,,,0.00,Wunderground v.1.15,2013-06-11 07:13:00,
2013-06-11 02:15:00,76.3,72.1,29.86,SSE,158,0.0,3.0,87,0.00,,,0.00,Wunderground v.1.15,2013-06-11 07:15:00,
2013-06-11 02:16:00,76.3,72.1,29.86,SSE,160,0.0,3.0,87,0.00,,,0.00,Wunderground v.1.15,2013-06-11 07:16:00,
2013-06-11 02:17:00,76.3,72.1,29.86,SSE,160,0.0,3.0,87,0.00,,,0.00,Wunderground v.1.15,2013-06-11 07:17:00,
2013-06-11 02:23:00,76.1,72.3,29.86,SSE,160,0.0,0.0,88,0.00,,,0.00,Wunderground v.1.15,2013-06-11 07:23:00,
2013-06-11 02:24:00,76.1,72.3,29.86,SSE,160,0.0,0.0,88,0.00,,,0.00,Wunderground v.1.15,2013-06-11 07:24:00,
2013-06-11 02:25:00,76.0,72.2,29.86,SSE,160,0.0,1.0,88,0.00,,,0.00,Wunderground v.1.15,2013-06-11 07:25:00,
2013-06-11 02:26:00,76.0,72.2,29.86,SSE,160,0.0,2.0,88,0.00,,,0.00,Wunderground v.1.15,2013-06-11 07:26:00,
2013-06-11 02:28:00,76.0,72.2,29.86,SSE,160,1.0,2.0,88,0.00,,,0.00,Wunderground v.1.15,2013-06-11 07:28:00,
2013-06-11 02:29:00,76.0,72.2,29.86,SSE,160,1.0,2.0,88,0.00,,,0.00,Wunderground v.1.15,2013-06-11 07:29:00,
2013-06-11 02:31:00,76.0,72.2,29.86,SSE,160,1.0,1.0,88,0.00,,,0.00,Wunderground v.1.15,2013-06-11 07:31:00,
2013-06-11 02:32:00,76.0,72.2,29.85,SSE,160,1.0,1.0,88,0.00,,,0.00,Wunderground v.1.15,2013-06-11 07:32:00,
2013-06-11 02:33:00,76.0,72.2,29.85,SSE,160,1.0,1.0,88,0.00,,,0.00,Wunderground v.1.15,2013-06-11 07:33:00,
2013-06-11 02:36:00,76.0,72.5,29.85,SSE,160,1.0,1.0,89,0.00,,,0.00,Wunderground v.1.15,2013-06-11 07:36:00,
2013-06-11 02:37:00,76.0,72.5,29.85,SSE,164,1.0,1.0,89,0.00,,,0.00,Wunderground v.1.15,2013-06-11 07:37:00,
2013-06-11 02:38:00,76.0,72.5,29.85,SSE,165,1.0,1.0,89,0.00,,,0.00,Wunderground v.1.15,2013-06-11 07:38:00,
2013-06-11 02:43:00,75.8,72.3,29.85,SSE,167,1.0,1.0,89,0.00,,,0.00,Wunderground v.1.15,2013-06-11 07:43:00,
2013-06-11 02:45:00,75.8,72.3,29.85,SSE,165,0.0,1.0,89,0.00,,,0.00,Wunderground v.1.15,2013-06-11 07:45:00,
2013-06-11 02:46:00,75.8,72.3,29.85,SSE,167,0.0,1.0,89,0.00,,,0.00,Wunderground v.1.15,2013-06-11 07:46:00,
2013-06-11 02:47:00,75.8,72.3,29.85,SSE,165,0.0,1.0,89,0.00,,,0.00,Wunderground v.1.15,2013-06-11 07:47:00,
2013-06-11 02:49:00,75.8,72.3,29.85,SSE,165,0.0,1.0,89,0.00,,,0.00,Wunderground v.1.15,2013-06-11 07:49:00,
2013-06-11 02:51:00,75.6,72.1,29.85,SSE,165,0.0,0.0,89,0.00,,,0.00,Wunderground v.1.15,2013-06-11 07:51:00,
2013-06-11 02:53:00,75.8,72.7,29.85,SSE,165,0.0,0.0,90,0.00,,,0.00,Wunderground v.1.15,2013-06-11 07:53:00,
2013-06-11 02:55:00,75.8,72.7,29.85,SSE,165,0.0,0.0,90,0.00,,,0.00,Wunderground v.1.15,2013-06-11 07:55:00,
2013-06-11 02:56:00,75.8,72.7,29.85,SSE,165,0.0,0.0,90,0.00,,,0.00,Wunderground v.1.15,2013-06-11 07:56:00,
2013-06-11 02:57:00,75.6,72.5,29.85,SSE,167,0.0,3.0,90,0.00,,,0.00,Wunderground v.1.15,2013-06-11 07:57:00,
2013-06-11 03:01:00,75.8,72.7,29.85,SSE,154,0.0,0.0,90,0.00,,,0.00,Wunderground v.1.15,2013-06-11 08:01:00,
2013-06-11 03:02:00,75.8,72.7,29.85,SSE,154,0.0,2.0,90,0.00,,,0.00,Wunderground v.1.15,2013-06-11 08:02:00,
2013-06-11 03:03:00,75.8,72.7,29.85,SSE,154,0.0,2.0,90,0.00,,,0.00,Wunderground v.1.15,2013-06-11 08:03:00,
2013-06-11 03:05:00,75.8,72.7,29.85,SSE,154,0.0,2.0,90,0.00,,,0.00,Wunderground v.1.15,2013-06-11 08:05:00,
2013-06-11 03:08:00,75.8,72.7,29.85,SSE,154,0.0,2.0,90,0.00,,,0.00,Wunderground v.1.15,2013-06-11 08:08:00,
2013-06-11 03:11:00,75.8,72.7,29.85,SSE,158,1.0,1.0,90,0.00,,,0.00,Wunderground v.1.15,2013-06-11 08:11:00,
2013-06-11 03:12:00,75.8,72.7,29.85,SSE,158,1.0,2.0,90,0.00,,,0.00,Wunderground v.1.15,2013-06-11 08:12:00,
2013-06-11 03:14:00,75.6,72.8,29.85,SSE,158,1.0,2.0,91,0.00,,,0.00,Wunderground v.1.15,2013-06-11 08:14:00,
2013-06-11 03:16:00,75.6,72.8,29.85,SSE,158,1.0,3.0,91,0.00,,,0.00,Wunderground v.1.15,2013-06-11 08:16:00,
2013-06-11 03:18:00,75.6,72.8,29.85,SSE,158,1.0,3.0,91,0.00,,,0.00,Wunderground v.1.15,2013-06-11 08:18:00,
2013-06-11 03:21:00,75.6,72.8,29.85,SSE,158,1.0,2.0,91,0.00,,,0.00,Wunderground v.1.15,2013-06-11 08:21:00,
2013-06-11 03:22:00,75.6,72.8,29.85,SSE,158,1.0,2.0,91,0.00,,,0.00,Wunderground v.1.15,2013-06-11 08:22:00,
2013-06-11 03:23:00,75.6,72.8,29.85,SSE,158,1.0,2.0,91,0.00,,,0.00,Wunderground v.1.15,2013-06-11 08:23:00,
2013-06-11 03:25:00,75.6,72.8,29.85,SSE,158,1.0,2.0,91,0.00,,,0.00,Wunderground v.1.15,2013-06-11 08:25:00,
2013-06-11 03:26:00,75.6,72.8,29.85,SSE,158,1.0,2.0,91,0.00,,,0.00,Wunderground v.1.15,2013-06-11 08:26:00,
2013-06-11 03:28:00,75.6,72.8,29.85,SSE,151,1.0,2.0,91,0.00,,,0.00,Wunderground v.1.15,2013-06-11 08:28:00,
2013-06-11 03:31:00,75.6,72.8,29.85,SE,138,1.0,2.0,91,0.00,,,0.00,Wunderground v.1.15,2013-06-11 08:31:00,
2013-06-11 03:32:00,75.6,72.8,29.85,SE,141,1.0,2.0,91,0.00,,,0.00,Wunderground v.1.15,2013-06-11 08:32:00,
2013-06-11 03:34:00,75.6,72.8,29.85,SE,141,1.0,3.0,91,0.00,,,0.00,Wunderground v.1.15,2013-06-11 08:34:00,
2013-06-11 03:35:00,75.6,72.8,29.85,SE,141,2.0,3.0,91,0.00,,,0.00,Wunderground v.1.15,2013-06-11 08:35:00,
2013-06-11 03:38:00,75.4,72.6,29.85,SSE,148,1.0,3.0,91,0.00,,,0.00,Wunderground v.1.15,2013-06-11 08:38:00,
2013-06-11 03:39:00,75.4,72.6,29.85,SSE,148,2.0,3.0,91,0.00,,,0.00,Wunderground v.1.15,2013-06-11 08:39:00,
2013-06-11 03:41:00,75.4,72.9,29.85,SSE,150,1.0,2.0,92,0.00,,,0.00,Wunderground v.1.15,2013-06-11 08:41:00,
2013-06-11 03:44:00,75.4,72.9,29.85,SSE,147,1.0,2.0,92,0.00,,,0.00,Wunderground v.1.15,2013-06-11 08:44:00,
2013-06-11 03:45:00,75.4,72.9,29.85,SSE,148,1.0,2.0,92,0.00,,,0.00,Wunderground v.1.15,2013-06-11 08:45:00,
2013-06-11 03:46:00,75.4,72.9,29.85,SSE,168,1.0,6.0,92,0.00,,,0.00,Wunderground v.1.15,2013-06-11 08:46:00,
2013-06-11 03:51:00,75.4,72.9,29.85,South,175,1.0,1.0,92,0.00,,,0.00,Wunderground v.1.15,2013-06-11 08:51:00,
2013-06-11 03:52:00,75.4,72.9,29.85,South,175,1.0,3.0,92,0.00,,,0.00,Wunderground v.1.15,2013-06-11 08:52:00,
2013-06-11 03:53:00,75.4,72.9,29.85,South,175,1.0,3.0,92,0.00,,,0.00,Wunderground v.1.15,2013-06-11 08:53:00,
2013-06-11 03:55:00,75.3,72.8,29.85,South,178,1.0,3.0,92,0.00,,,0.00,Wunderground v.1.15,2013-06-11 08:55:00,
2013-06-11 03:56:00,75.3,72.8,29.85,South,178,1.0,3.0,92,0.00,,,0.00,Wunderground v.1.15,2013-06-11 08:56:00,
2013-06-11 03:57:00,75.3,72.8,29.85,South,178,1.0,3.0,92,0.00,,,0.00,Wunderground v.1.15,2013-06-11 08:57:00,
2013-06-11 03:58:00,75.3,72.8,29.85,SSE,165,1.0,3.0,92,0.00,,,0.00,Wunderground v.1.15,2013-06-11 08:58:00,
2013-06-11 04:04:00,75.3,72.8,29.85,SSE,154,1.0,3.0,92,0.00,,,0.00,Wunderground v.1.15,2013-06-11 09:04:00,
2013-06-11 04:05:00,75.3,72.8,29.85,SSE,154,1.0,3.0,92,0.00,,,0.00,Wunderground v.1.15,2013-06-11 09:05:00,
2013-06-11 04:08:00,75.3,72.8,29.85,SSE,152,1.0,3.0,92,0.00,,,0.00,Wunderground v.1.15,2013-06-11 09:08:00,
2013-06-11 04:11:00,75.3,72.8,29.85,SSE,152,1.0,1.0,92,0.00,,,0.00,Wunderground v.1.15,2013-06-11 09:11:00,
2013-06-11 04:12:00,75.3,72.8,29.85,SSE,152,0.0,1.0,92,0.00,,,0.00,Wunderground v.1.15,2013-06-11 09:12:00,
2013-06-11 04:14:00,75.3,72.8,29.85,SSE,152,0.0,3.0,92,0.00,,,0.00,Wunderground v.1.15,2013-06-11 09:14:00,
2013-06-11 04:15:00,75.3,72.8,29.85,SSE,152,1.0,3.0,92,0.00,,,0.00,Wunderground v.1.15,2013-06-11 09:15:00,
2013-06-11 04:17:00,75.3,72.8,29.85,SE,137,1.0,3.0,92,0.00,,,0.00,Wunderground v.1.15,2013-06-11 09:17:00,
2013-06-11 04:21:00,75.1,72.6,29.85,SE,144,2.0,7.0,92,0.00,,,0.00,Wunderground v.1.15,2013-06-11 09:21:00,
2013-06-11 04:23:00,75.1,72.6,29.85,SSE,162,2.0,4.0,92,0.00,,,0.00,Wunderground v.1.15,2013-06-11 09:23:00,
2013-06-11 04:25:00,75.1,72.6,29.85,SSE,162,2.0,4.0,92,0.00,,,0.00,Wunderground v.1.15,2013-06-11 09:25:00,
2013-06-11 04:26:00,75.1,72.6,29.85,SSE,162,2.0,4.0,92,0.00,,,0.00,Wunderground v.1.15,2013-06-11 09:26:00,
2013-06-11 04:29:00,75.1,72.9,29.85,SSE,151,1.0,5.0,93,0.00,,,0.00,Wunderground v.1.15,2013-06-11 09:29:00,
2013-06-11 04:31:00,75.1,72.9,29.85,SSE,152,1.0,5.0,93,0.00,,,0.00,Wunderground v.1.15,2013-06-11 09:31:00,
2013-06-11 04:34:00,75.1,72.9,29.85,SE,137,1.0,4.0,93,0.00,,,0.00,Wunderground v.1.15,2013-06-11 09:34:00,
2013-06-11 04:36:00,74.9,72.7,29.85,SE,137,2.0,4.0,93,0.00,,,0.00,Wunderground v.1.15,2013-06-11 09:36:00,
2013-06-11 04:39:00,74.9,72.7,29.85,SSE,150,2.0,4.0,93,0.00,,,0.00,Wunderground v.1.15,2013-06-11 09:39:00,
2013-06-11 04:41:00,74.9,72.7,29.85,SE,140,2.0,4.0,93,0.00,,,0.00,Wunderground v.1.15,2013-06-11 09:41:00,
2013-06-11 04:44:00,74.7,72.5,29.85,SSE,147,2.0,4.0,93,0.00,,,0.00,Wunderground v.1.15,2013-06-11 09:44:00,
2013-06-11 04:46:00,74.7,72.5,29.85,SSE,148,2.0,4.0,93,0.00,,,0.00,Wunderground v.1.15,2013-06-11 09:46:00,
2013-06-11 04:47:00,74.7,72.5,29.85,SSE,151,2.0,4.0,93,0.00,,,0.00,Wunderground v.1.15,2013-06-11 09:47:00,
2013-06-11 04:51:00,74.7,72.5,29.85,SSE,151,1.0,1.0,93,0.00,,,0.00,Wunderground v.1.15,2013-06-11 09:51:00,
2013-06-11 04:52:00,74.7,72.5,29.85,SSE,150,1.0,2.0,93,0.00,,,0.00,Wunderground v.1.15,2013-06-11 09:52:00,
2013-06-11 04:54:00,74.7,72.5,29.85,SSE,150,1.0,2.0,93,0.00,,,0.00,Wunderground v.1.15,2013-06-11 09:54:00,
2013-06-11 04:56:00,74.7,72.5,29.85,SSE,151,1.0,2.0,93,0.00,,,0.00,Wunderground v.1.15,2013-06-11 09:56:00,
2013-06-11 04:57:00,74.7,72.5,29.85,SSE,150,1.0,2.0,93,0.00,,,0.00,Wunderground v.1.15,2013-06-11 09:57:00,
2013-06-11 04:58:00,74.7,72.5,29.85,SSE,150,1.0,2.0,93,0.00,,,0.00,Wunderground v.1.15,2013-06-11 09:58:00,
2013-06-11 04:59:00,74.7,72.5,29.85,SSE,150,1.0,2.0,93,0.00,,,0.00,Wunderground v.1.15,2013-06-11 09:59:00,
2013-06-11 05:01:00,74.7,72.5,29.85,SSE,151,1.0,1.0,93,0.00,,,0.00,Wunderground v.1.15,2013-06-11 10:01:00,
2013-06-11 05:05:00,74.7,72.5,29.85,SSE,152,1.0,3.0,93,0.00,,,0.00,Wunderground v.1.15,2013-06-11 10:05:00,
2013-06-11 05:06:00,74.7,72.5,29.85,SSE,152,1.0,3.0,93,0.00,,,0.00,Wunderground v.1.15,2013-06-11 10:06:00,
2013-06-11 05:07:00,74.7,72.5,29.85,SSE,152,1.0,3.0,93,0.00,,,0.00,Wunderground v.1.15,2013-06-11 10:07:00,
2013-06-11 05:08:00,74.7,72.5,29.85,SSE,152,0.0,3.0,93,0.00,,,0.00,Wunderground v.1.15,2013-06-11 10:08:00,
2013-06-11 05:11:00,74.7,72.5,29.85,SSE,154,1.0,2.0,93,0.00,,,0.00,Wunderground v.1.15,2013-06-11 10:11:00,
2013-06-11 05:13:00,74.7,72.5,29.85,SSE,152,1.0,2.0,93,0.00,,,0.00,Wunderground v.1.15,2013-06-11 10:13:00,
2013-06-11 05:15:00,74.9,72.7,29.85,SSE,152,1.0,2.0,93,0.00,,,0.00,Wunderground v.1.15,2013-06-11 10:15:00,
2013-06-11 05:18:00,74.9,72.7,29.85,SE,130,1.0,7.0,93,0.00,,,0.00,Wunderground v.1.15,2013-06-11 10:18:00,
2013-06-11 05:19:00,74.9,72.7,29.85,SE,133,1.0,7.0,93,0.00,,,0.00,Wunderground v.1.15,2013-06-11 10:19:00,
2013-06-11 05:21:00,74.9,72.7,29.85,SSE,154,2.0,7.0,93,0.00,,,0.00,Wunderground v.1.15,2013-06-11 10:21:00,
2013-06-11 05:22:00,74.9,72.7,29.85,SSE,152,2.0,3.0,93,0.00,,,0.00,Wunderground v.1.15,2013-06-11 10:22:00,
2013-06-11 05:26:00,74.9,72.7,29.85,SE,134,3.0,5.0,93,0.00,,,0.00,Wunderground v.1.15,2013-06-11 10:26:00,
2013-06-11 05:27:00,74.9,72.7,29.85,SE,143,3.0,5.0,93,0.00,,,0.00,Wunderground v.1.15,2013-06-11 10:27:00,
2013-06-11 05:29:00,74.9,72.7,29.85,SE,144,3.0,5.0,93,0.00,,,0.00,Wunderground v.1.15,2013-06-11 10:29:00,
2013-06-11 05:31:00,74.9,72.7,29.86,SE,144,2.0,5.0,93,0.00,,,0.00,Wunderground v.1.15,2013-06-11 10:31:00,
2013-06-11 05:32:00,74.9,72.7,29.86,SE,145,2.0,2.0,93,0.00,,,0.00,Wunderground v.1.15,2013-06-11 10:32:00,
2013-06-11 05:34:00,74.9,72.7,29.86,SSE,164,2.0,2.0,93,0.00,,,0.00,Wunderground v.1.15,2013-06-11 10:34:00,
2013-06-11 05:37:00,74.9,72.7,29.86,SE,136,1.0,2.0,93,0.00,,,0.00,Wunderground v.1.15,2013-06-11 10:37:00,
2013-06-11 05:38:00,74.9,72.7,29.86,ESE,116,1.0,6.0,93,0.00,,,0.00,Wunderground v.1.15,2013-06-11 10:38:00,
2013-06-11 05:40:00,74.9,72.7,29.86,SSE,157,2.0,6.0,93,0.00,,,0.00,Wunderground v.1.15,2013-06-11 10:40:00,
2013-06-11 05:41:00,74.9,72.7,29.86,SE,127,3.0,5.0,93,0.00,,,0.00,Wunderground v.1.15,2013-06-11 10:41:00,
2013-06-11 05:44:00,74.7,72.5,29.86,SSE,155,3.0,7.0,93,0.00,,,0.00,Wunderground v.1.15,2013-06-11 10:44:00,
2013-06-11 05:45:00,74.7,72.5,29.86,SSE,168,4.0,7.0,93,0.00,,,0.00,Wunderground v.1.15,2013-06-11 10:45:00,
2013-06-11 05:46:00,74.7,72.5,29.86,South,176,4.0,7.0,93,0.00,,,0.00,Wunderground v.1.15,2013-06-11 10:46:00,
2013-06-11 05:47:00,74.7,72.5,29.86,South,169,4.0,7.0,93,0.00,,,0.00,Wunderground v.1.15,2013-06-11 10:47:00,
2013-06-11 05:49:00,74.7,72.5,29.86,SSE,158,4.0,7.0,93,0.00,,,0.00,Wunderground v.1.15,2013-06-11 10:49:00,
2013-06-11 05:51:00,74.7,72.5,29.86,South,169,4.0,7.0,93,0.00,,,0.00,Wunderground v.1.15,2013-06-11 10:51:00,
2013-06-11 05:52:00,74.7,72.5,29.86,South,185,4.0,7.0,93,0.00,,,0.00,Wunderground v.1.15,2013-06-11 10:52:00,
2013-06-11 05:54:00,74.7,72.5,29.86,South,185,3.0,7.0,93,0.00,,,0.00,Wunderground v.1.15,2013-06-11 10:54:00,
2013-06-11 05:56:00,74.7,72.5,29.86,South,184,3.0,7.0,93,0.00,,,0.00,Wunderground v.1.15,2013-06-11 10:56:00,
2013-06-11 05:59:00,74.7,72.9,29.86,South,186,3.0,7.0,94,0.00,,,0.00,Wunderground v.1.15,2013-06-11 10:59:00,
2013-06-11 06:03:00,74.7,72.9,29.87,SSW,205,3.0,3.0,94,0.00,,,0.00,Wunderground v.1.15,2013-06-11 11:03:00,
2013-06-11 06:04:00,74.7,72.9,29.87,South,186,3.0,3.0,94,0.00,,,0.00,Wunderground v.1.15,2013-06-11 11:04:00,
2013-06-11 06:05:00,74.7,72.9,29.87,South,181,3.0,3.0,94,0.00,,,0.00,Wunderground v.1.15,2013-06-11 11:05:00,
2013-06-11 06:07:00,74.7,72.9,29.87,SW,216,3.0,7.0,94,0.00,,,0.00,Wunderground v.1.15,2013-06-11 11:07:00,
2013-06-11 06:09:00,74.6,72.8,29.87,South,191,4.0,7.0,94,0.00,,,0.00,Wunderground v.1.15,2013-06-11 11:09:00,
2013-06-11 06:12:00,74.6,72.8,29.87,South,186,4.0,5.0,94,0.00,,,0.00,Wunderground v.1.15,2013-06-11 11:12:00,
2013-06-11 06:13:00,74.6,72.8,29.87,South,185,4.0,5.0,94,0.00,,,0.00,Wunderground v.1.15,2013-06-11 11:13:00,
2013-06-11 06:14:00,74.6,72.8,29.87,SE,143,4.0,5.0,94,0.00,,,0.00,Wunderground v.1.15,2013-06-11 11:14:00,
2013-06-11 06:15:00,74.6,72.8,29.87,SSE,155,3.0,5.0,94,0.00,,,0.00,Wunderground v.1.15,2013-06-11 11:15:00,
2013-06-11 06:18:00,74.6,72.8,29.87,South,171,3.0,5.0,94,0.00,,,0.00,Wunderground v.1.15,2013-06-11 11:18:00,
2013-06-11 06:21:00,74.6,72.8,29.87,South,188,2.0,2.0,94,0.00,,,0.00,Wunderground v.1.15,2013-06-11 11:21:00,
2013-06-11 06:22:00,74.6,72.8,29.87,South,188,2.0,2.0,94,0.00,,,0.00,Wunderground v.1.15,2013-06-11 11:22:00,
2013-06-11 06:26:00,74.6,72.8,29.87,South,184,2.0,3.0,94,0.00,,,0.00,Wunderground v.1.15,2013-06-11 11:26:00,
2013-06-11 06:27:00,74.6,72.8,29.87,South,188,2.0,5.0,94,0.00,,,0.00,Wunderground v.1.15,2013-06-11 11:27:00,
2013-06-11 06:28:00,74.6,72.8,29.87,South,184,2.0,5.0,94,0.00,,,0.00,Wunderground v.1.15,2013-06-11 11:28:00,
2013-06-11 06:32:00,74.4,72.6,29.87,South,182,2.0,2.0,94,0.00,,,0.00,Wunderground v.1.15,2013-06-11 11:32:00,
2013-06-11 06:33:00,74.4,72.6,29.87,SSE,164,2.0,4.0,94,0.00,,,0.00,Wunderground v.1.15,2013-06-11 11:33:00,
2013-06-11 06:37:00,74.4,72.6,29.87,South,174,2.0,5.0,94,0.00,,,0.00,Wunderground v.1.15,2013-06-11 11:37:00,
2013-06-11 06:41:00,74.4,72.6,29.87,SSE,164,2.0,2.0,94,0.00,,,0.00,Wunderground v.1.15,2013-06-11 11:41:00,
2013-06-11 06:43:00,74.4,72.6,29.87,SSE,155,2.0,3.0,94,0.00,,,0.00,Wunderground v.1.15,2013-06-11 11:43:00,
2013-06-11 06:44:00,74.4,72.6,29.87,South,184,3.0,4.0,94,0.00,,,0.00,Wunderground v.1.15,2013-06-11 11:44:00,
2013-06-11 06:47:00,74.4,72.6,29.87,South,178,3.0,4.0,94,0.00,,,0.00,Wunderground v.1.15,2013-06-11 11:47:00,
2013-06-11 06:48:00,74.4,72.6,29.87,SSE,154,3.0,4.0,94,0.00,,,0.00,Wunderground v.1.15,2013-06-11 11:48:00,
2013-06-11 06:52:00,74.4,72.6,29.87,South,169,3.0,3.0,94,0.00,,,0.00,Wunderground v.1.15,2013-06-11 11:52:00,
2013-06-11 06:53:00,74.4,72.6,29.87,South,171,3.0,3.0,94,0.00,,,0.00,Wunderground v.1.15,2013-06-11 11:53:00,
2013-06-11 06:54:00,74.4,72.6,29.87,South,171,3.0,3.0,94,0.00,,,0.00,Wunderground v.1.15,2013-06-11 11:54:00,
2013-06-11 06:58:00,74.4,72.6,29.87,SSE,152,2.0,3.0,94,0.00,,,0.00,Wunderground v.1.15,2013-06-11 11:58:00,
2013-06-11 06:59:00,74.4,72.6,29.87,South,179,2.0,4.0,94,0.00,,,0.00,Wunderground v.1.15,2013-06-11 11:59:00,
2013-06-11 07:01:00,74.4,72.6,29.88,South,179,2.0,5.0,94,0.00,,,0.00,Wunderground v.1.15,2013-06-11 12:01:00,
2013-06-11 07:05:00,74.2,72.4,29.88,South,181,2.0,5.0,94,0.00,,,0.00,Wunderground v.1.15,2013-06-11 12:05:00,
2013-06-11 07:06:00,74.2,72.4,29.88,South,179,2.0,5.0,94,0.00,,,0.00,Wunderground v.1.15,2013-06-11 12:06:00,
2013-06-11 07:07:00,74.2,72.4,29.88,South,179,2.0,5.0,94,0.00,,,0.00,Wunderground v.1.15,2013-06-11 12:07:00,
2013-06-11 07:08:00,74.2,72.4,29.88,South,181,1.0,5.0,94,0.00,,,0.00,Wunderground v.1.15,2013-06-11 12:08:00,
2013-06-11 07:12:00,74.2,72.4,29.88,South,181,1.0,3.0,94,0.00,,,0.00,Wunderground v.1.15,2013-06-11 12:12:00,
2013-06-11 07:13:00,74.2,72.4,29.88,South,181,1.0,3.0,94,0.00,,,0.00,Wunderground v.1.15,2013-06-11 12:13:00,
2013-06-11 07:15:00,74.2,72.4,29.88,South,181,1.0,3.0,94,0.00,,,0.00,Wunderground v.1.15,2013-06-11 12:15:00,
2013-06-11 07:16:00,74.0,72.2,29.88,South,181,1.0,3.0,94,0.00,,,0.00,Wunderground v.1.15,2013-06-11 12:16:00,
2013-06-11 07:17:00,74.0,72.2,29.88,South,181,1.0,3.0,94,0.00,,,0.00,Wunderground v.1.15,2013-06-11 12:17:00,
2013-06-11 07:19:00,74.0,72.5,29.88,South,181,1.0,3.0,95,0.00,,,0.00,Wunderground v.1.15,2013-06-11 12:19:00,
2013-06-11 07:22:00,74.0,72.5,29.88,South,181,1.0,1.0,95,0.00,,,0.00,Wunderground v.1.15,2013-06-11 12:22:00,
2013-06-11 07:23:00,74.0,72.5,29.88,South,182,0.0,1.0,95,0.00,,,0.00,Wunderground v.1.15,2013-06-11 12:23:00,
2013-06-11 07:27:00,74.2,72.7,29.88,South,182,0.0,2.0,95,0.00,,,0.00,Wunderground v.1.15,2013-06-11 12:27:00,
2013-06-11 07:28:00,74.2,72.7,29.88,South,182,0.0,2.0,95,0.00,,,0.00,Wunderground v.1.15,2013-06-11 12:28:00,
2013-06-11 07:29:00,74.2,72.7,29.88,South,182,0.0,2.0,95,0.00,,,0.00,Wunderground v.1.15,2013-06-11 12:29:00,
2013-06-11 07:31:00,74.2,72.7,29.89,South,182,1.0,1.0,95,0.00,,,0.00,Wunderground v.1.15,2013-06-11 12:31:00,
2013-06-11 07:32:00,74.2,72.7,29.89,South,182,1.0,1.0,95,0.00,,,0.00,Wunderground v.1.15,2013-06-11 12:32:00,
2013-06-11 07:37:00,74.4,72.9,29.89,South,175,1.0,1.0,95,0.00,,,0.00,Wunderground v.1.15,2013-06-11 12:37:00,
2013-06-11 07:39:00,74.4,72.9,29.89,South,175,1.0,1.0,95,0.00,,,0.00,Wunderground v.1.15,2013-06-11 12:39:00,
2013-06-11 07:40:00,74.6,73.1,29.89,South,176,1.0,3.0,95,0.00,,,0.00,Wunderground v.1.15,2013-06-11 12:40:00,
2013-06-11 07:44:00,74.6,73.1,29.89,SSW,193,2.0,5.0,95,0.00,,,0.00,Wunderground v.1.15,2013-06-11 12:44:00,
2013-06-11 07:45:00,74.7,73.2,29.89,SSW,195,2.0,5.0,95,0.00,,,0.00,Wunderground v.1.15,2013-06-11 12:45:00,
2013-06-11 07:48:00,74.7,73.2,29.89,SSW,196,2.0,5.0,95,0.00,,,0.00,Wunderground v.1.15,2013-06-11 12:48:00,
2013-06-11 07:50:00,74.7,72.9,29.89,South,179,2.0,5.0,94,0.00,,,0.00,Wunderground v.1.15,2013-06-11 12:50:00,
2013-06-11 07:51:00,74.7,72.9,29.89,South,181,2.0,3.0,94,0.00,,,0.00,Wunderground v.1.15,2013-06-11 12:51:00,
2013-06-11 07:52:00,74.6,72.8,29.89,South,181,2.0,3.0,94,0.00,,,0.00,Wunderground v.1.15,2013-06-11 12:52:00,
2013-06-11 07:56:00,74.6,72.8,29.89,SSW,192,2.0,3.0,94,0.00,,,0.00,Wunderground v.1.15,2013-06-11 12:56:00,
2013-06-11 08:01:00,74.4,72.6,29.89,South,184,2.0,2.0,94,0.00,,,0.00,Wunderground v.1.15,2013-06-11 13:01:00,
2013-06-11 08:04:00,74.6,72.8,29.89,South,184,2.0,3.0,94,0.00,,,0.00,Wunderground v.1.15,2013-06-11 13:04:00,
2013-06-11 08:06:00,74.6,72.8,29.89,South,179,2.0,5.0,94,0.00,,,0.00,Wunderground v.1.15,2013-06-11 13:06:00,
2013-06-11 08:08:00,74.6,72.8,29.89,South,179,1.0,5.0,94,0.00,,,0.00,Wunderground v.1.15,2013-06-11 13:08:00,
2013-06-11 08:10:00,74.6,72.8,29.89,South,179,1.0,5.0,94,0.00,,,0.00,Wunderground v.1.15,2013-06-11 13:10:00,
2013-06-11 08:12:00,74.4,72.6,29.89,South,181,1.0,2.0,94,0.00,,,0.00,Wunderground v.1.15,2013-06-11 13:12:00,
2013-06-11 08:14:00,74.6,72.8,29.89,South,181,1.0,2.0,94,0.00,,,0.00,Wunderground v.1.15,2013-06-11 13:14:00,
2013-06-11 08:15:00,74.6,72.8,29.89,South,182,1.0,2.0,94,0.00,,,0.00,Wunderground v.1.15,2013-06-11 13:15:00,
2013-06-11 08:17:00,74.7,72.9,29.90,South,181,1.0,2.0,94,0.00,,,0.00,Wunderground v.1.15,2013-06-11 13:17:00,
2013-06-11 08:20:00,74.9,73.1,29.90,South,182,1.0,2.0,94,0.00,,,0.00,Wunderground v.1.15,2013-06-11 13:20:00,
2013-06-11 08:23:00,75.1,73.3,29.90,South,182,0.0,2.0,94,0.00,,,0.00,Wunderground v.1.15,2013-06-11 13:23:00,
2013-06-11 08:25:00,75.1,72.9,29.90,SW,232,1.0,5.0,93,0.00,,,0.00,Wunderground v.1.15,2013-06-11 13:25:00,
2013-06-11 08:26:00,75.1,72.9,29.90,SW,222,1.0,5.0,93,0.00,,,0.00,Wunderground v.1.15,2013-06-11 13:26:00,
2013-06-11 08:28:00,75.3,73.5,29.90,SW,222,1.0,5.0,94,0.00,,,0.00,Wunderground v.1.15,2013-06-11 13:28:00,
2013-06-11 08:31:00,75.4,73.2,29.91,South,175,1.0,5.0,93,0.00,,,0.00,Wunderground v.1.15,2013-06-11 13:31:00,
2013-06-11 08:34:00,75.4,72.9,29.91,SSE,152,1.0,5.0,92,0.00,,,0.00,Wunderground v.1.15,2013-06-11 13:34:00,
2013-06-11 08:35:00,75.4,72.9,29.91,SE,130,1.0,5.0,92,0.00,,,0.00,Wunderground v.1.15,2013-06-11 13:35:00,
2013-06-11 08:36:00,75.3,72.8,29.91,SSE,168,1.0,5.0,92,0.00,,,0.00,Wunderground v.1.15,2013-06-11 13:36:00,
2013-06-11 08:40:00,75.4,72.6,29.91,SE,145,1.0,5.0,91,0.00,,,0.00,Wunderground v.1.15,2013-06-11 13:40:00,
2013-06-11 08:41:00,75.4,72.6,29.91,South,169,1.0,1.0,91,0.00,,,0.00,Wunderground v.1.15,2013-06-11 13:41:00,
2013-06-11 08:42:00,75.4,72.6,29.91,South,172,1.0,2.0,91,0.00,,,0.00,Wunderground v.1.15,2013-06-11 13:42:00,
2013-06-11 08:43:00,75.4,72.6,29.91,South,172,1.0,2.0,91,0.00,,,0.00,Wunderground v.1.15,2013-06-11 13:43:00,
2013-06-11 08:45:00,75.6,72.8,29.91,SE,138,1.0,2.0,91,0.00,,,0.00,Wunderground v.1.15,2013-06-11 13:45:00,
2013-06-11 08:46:00,75.6,72.5,29.91,SE,138,1.0,3.0,90,0.00,,,0.00,Wunderground v.1.15,2013-06-11 13:46:00,
2013-06-11 08:47:00,75.4,72.3,29.91,SE,138,1.0,3.0,90,0.00,,,0.00,Wunderground v.1.15,2013-06-11 13:47:00,
2013-06-11 08:50:00,75.6,72.5,29.91,SE,140,1.0,3.0,90,0.00,,,0.00,Wunderground v.1.15,2013-06-11 13:50:00,
2013-06-11 08:52:00,75.6,72.1,29.91,SSE,155,1.0,3.0,89,0.00,,,0.00,Wunderground v.1.15,2013-06-11 13:52:00,
2013-06-11 08:54:00,75.6,72.1,29.91,SSE,155,1.0,3.0,89,0.00,,,0.00,Wunderground v.1.15,2013-06-11 13:54:00,
2013-06-11 08:57:00,75.8,72.3,29.91,SSE,155,1.0,3.0,89,0.00,,,0.00,Wunderground v.1.15,2013-06-11 13:57:00,
2013-06-11 08:58:00,75.8,72.3,29.91,SSE,155,1.0,3.0,89,0.00,,,0.00,Wunderground v.1.15,2013-06-11 13:58:00,
2013-06-11 08:59:00,75.8,72.3,29.91,SSE,160,1.0,3.0,89,0.00,,,0.00,Wunderground v.1.15,2013-06-11 13:59:00,
2013-06-11 09:02:00,76.0,72.2,29.91,SSE,160,1.0,1.0,88,0.00,,,0.00,Wunderground v.1.15,2013-06-11 14:02:00,
2013-06-11 09:05:00,76.1,72.3,29.91,SSE,160,0.0,1.0,88,0.00,,,0.00,Wunderground v.1.15,2013-06-11 14:05:00,
2013-06-11 09:06:00,76.1,72.3,29.91,SSE,160,0.0,1.0,88,0.00,,,0.00,Wunderground v.1.15,2013-06-11 14:06:00,
2013-06-11 09:09:00,76.1,71.9,29.91,SSE,160,0.0,1.0,87,0.00,,,0.00,Wunderground v.1.15,2013-06-11 14:09:00,
2013-06-11 09:12:00,76.1,71.9,29.91,SSE,160,0.0,0.0,87,0.00,,,0.00,Wunderground v.1.15,2013-06-11 14:12:00,
2013-06-11 09:15:00,76.3,72.1,29.91,SSE,160,0.0,0.0,87,0.00,,,0.00,Wunderground v.1.15,2013-06-11 14:15:00,
2013-06-11 09:16:00,76.5,72.3,29.91,SSE,160,0.0,0.0,87,0.00,,,0.00,Wunderground v.1.15,2013-06-11 14:16:00,
2013-06-11 09:17:00,76.7,72.5,29.91,SSE,160,0.0,0.0,87,0.00,,,0.00,Wunderground v.1.15,2013-06-11 14:17:00,
2013-06-11 09:19:00,76.8,72.3,29.91,SSE,160,0.0,1.0,86,0.00,,,0.00,Wunderground v.1.15,2013-06-11 14:19:00,
2013-06-11 09:21:00,77.2,72.3,29.91,SSE,164,0.0,1.0,85,0.00,,,0.00,Wunderground v.1.15,2013-06-11 14:21:00,
2013-06-11 09:22:00,77.4,72.5,29.91,SSE,164,0.0,0.0,85,0.00,,,0.00,Wunderground v.1.15,2013-06-11 14:22:00,
2013-06-11 09:26:00,77.6,72.0,29.91,SSE,161,1.0,5.0,83,0.00,,,0.00,Wunderground v.1.15,2013-06-11 14:26:00,
2013-06-11 09:27:00,77.7,71.8,29.91,SSE,162,1.0,5.0,82,0.00,,,0.00,Wunderground v.1.15,2013-06-11 14:27:00,
2013-06-11 09:28:00,77.9,72.0,29.91,SSE,162,1.0,5.0,82,0.00,,,0.00,Wunderground v.1.15,2013-06-11 14:28:00,
2013-06-11 09:29:00,77.9,72.0,29.91,SSE,164,1.0,5.0,82,0.00,,,0.00,Wunderground v.1.15,2013-06-11 14:29:00,
2013-06-11 09:32:00,77.9,71.6,29.91,South,176,1.0,1.0,81,0.00,,,0.00,Wunderground v.1.15,2013-06-11 14:32:00,
2013-06-11 09:35:00,78.3,72.0,29.91,South,176,1.0,1.0,81,0.00,,,0.00,Wunderground v.1.15,2013-06-11 14:35:00,
2013-06-11 09:37:00,78.3,72.0,29.91,South,176,1.0,2.0,81,0.00,,,0.00,Wunderground v.1.15,2013-06-11 14:37:00,
2013-06-11 09:38:00,78.3,71.6,29.91,South,176,1.0,2.0,80,0.00,,,0.00,Wunderground v.1.15,2013-06-11 14:38:00,
2013-06-11 09:39:00,78.5,72.2,29.91,South,176,1.0,2.0,81,0.00,,,0.00,Wunderground v.1.15,2013-06-11 14:39:00,
2013-06-11 09:41:00,78.6,71.5,29.91,South,179,0.0,3.0,79,0.00,,,0.00,Wunderground v.1.15,2013-06-11 14:41:00,
2013-06-11 09:43:00,78.5,71.4,29.91,South,179,1.0,3.0,79,0.00,,,0.00,Wunderground v.1.15,2013-06-11 14:43:00,
2013-06-11 09:46:00,78.5,71.4,29.91,South,179,1.0,3.0,79,0.00,,,0.00,Wunderground v.1.15,2013-06-11 14:46:00,
2013-06-11 09:47:00,78.5,71.4,29.91,South,179,1.0,3.0,79,0.00,,,0.00,Wunderground v.1.15,2013-06-11 14:47:00,
2013-06-11 09:48:00,78.6,71.5,29.91,South,179,0.0,3.0,79,0.00,,,0.00,Wunderground v.1.15,2013-06-11 14:48:00,
2013-06-11 09:51:00,78.6,71.5,29.91,South,179,0.0,3.0,79,0.00,,,0.00,Wunderground v.1.15,2013-06-11 14:51:00,
2013-06-11 09:52:00,78.6,71.5,29.91,South,179,0.0,0.0,79,0.00,,,0.00,Wunderground v.1.15,2013-06-11 14:52:00,
2013-06-11 09:53:00,78.6,71.5,29.91,South,179,0.0,0.0,79,0.00,,,0.00,Wunderground v.1.15,2013-06-11 14:53:00,
2013-06-11 09:57:00,78.6,71.2,29.91,South,179,0.0,0.0,78,0.00,,,0.00,Wunderground v.1.15,2013-06-11 14:57:00,
2013-06-11 09:58:00,78.6,71.2,29.91,South,184,0.0,4.0,78,0.00,,,0.00,Wunderground v.1.15,2013-06-11 14:58:00,
2013-06-11 10:00:00,78.6,70.8,29.91,South,182,0.0,4.0,77,0.00,,,0.00,Wunderground v.1.15,2013-06-11 15:00:00,
2013-06-11 10:02:00,78.8,71.0,29.91,South,185,1.0,2.0,77,0.00,,,0.00,Wunderground v.1.15,2013-06-11 15:02:00,
2013-06-11 10:05:00,79.0,71.6,29.91,South,185,1.0,2.0,78,0.00,,,0.00,Wunderground v.1.15,2013-06-11 15:05:00,
2013-06-11 10:08:00,79.2,71.0,29.91,South,185,1.0,2.0,76,0.00,,,0.00,Wunderground v.1.15,2013-06-11 15:08:00,
2013-06-11 10:10:00,79.4,71.6,29.91,South,185,1.0,3.0,77,0.00,,,0.00,Wunderground v.1.15,2013-06-11 15:10:00,
2013-06-11 10:11:00,79.4,70.8,29.91,South,175,1.0,1.0,75,0.00,,,0.00,Wunderground v.1.15,2013-06-11 15:11:00,
2013-06-11 10:14:00,79.8,71.2,29.91,South,175,1.0,1.0,75,0.00,,,0.00,Wunderground v.1.15,2013-06-11 15:14:00,
2013-06-11 10:15:00,79.9,71.3,29.91,South,175,1.0,1.0,75,0.00,,,0.00,Wunderground v.1.15,2013-06-11 15:15:00,
2013-06-11 10:16:00,79.9,71.3,29.91,SSW,192,1.0,7.0,75,0.00,,,0.00,Wunderground v.1.15,2013-06-11 15:16:00,
2013-06-11 10:19:00,80.1,70.7,29.91,SSW,195,2.0,7.0,73,0.00,,,0.00,Wunderground v.1.15,2013-06-11 15:19:00,
2013-06-11 10:22:00,80.5,70.6,29.91,SE,138,2.0,2.0,72,0.00,,,0.00,Wunderground v.1.15,2013-06-11 15:22:00,
2013-06-11 10:24:00,80.7,70.8,29.91,SE,138,1.0,2.0,72,0.00,,,0.00,Wunderground v.1.15,2013-06-11 15:24:00,
2013-06-11 10:25:00,80.9,71.0,29.91,SE,138,2.0,2.0,72,0.00,,,0.00,Wunderground v.1.15,2013-06-11 15:25:00,
2013-06-11 10:28:00,81.2,70.1,29.91,South,182,2.0,8.0,69,0.00,,,0.00,Wunderground v.1.15,2013-06-11 15:28:00,
2013-06-11 10:30:00,81.2,69.6,29.91,SSE,152,2.0,8.0,68,0.00,,,0.00,Wunderground v.1.15,2013-06-11 15:30:00,
2013-06-11 10:31:00,81.6,70.0,29.91,SSE,152,2.0,2.0,68,0.00,,,0.00,Wunderground v.1.15,2013-06-11 15:31:00,
2013-06-11 10:33:00,81.8,69.8,29.91,SSE,160,2.0,4.0,67,0.00,,,0.00,Wunderground v.1.15,2013-06-11 15:33:00,
2013-06-11 10:34:00,81.8,69.8,29.91,SSE,160,2.0,4.0,67,0.00,,,0.00,Wunderground v.1.15,2013-06-11 15:34:00,
2013-06-11 10:38:00,82.2,69.7,29.91,South,171,1.0,4.0,66,0.00,,,0.00,Wunderground v.1.15,2013-06-11 15:38:00,
2013-06-11 10:39:00,82.2,70.1,29.91,South,171,1.0,4.0,67,0.00,,,0.00,Wunderground v.1.15,2013-06-11 15:39:00,
2013-06-11 10:40:00,82.4,70.3,29.91,South,171,1.0,4.0,67,0.00,,,0.00,Wunderground v.1.15,2013-06-11 15:40:00,
2013-06-11 10:42:00,82.6,70.5,29.91,South,179,1.0,3.0,67,0.00,,,0.00,Wunderground v.1.15,2013-06-11 15:42:00,
2013-06-11 10:44:00,82.4,70.3,29.91,South,179,1.0,3.0,67,0.00,,,0.00,Wunderground v.1.15,2013-06-11 15:44:00,
2013-06-11 10:46:00,82.0,70.0,29.91,South,179,1.0,3.0,67,0.00,,,0.00,Wunderground v.1.15,2013-06-11 15:46:00,
2013-06-11 10:48:00,81.6,69.6,29.91,South,169,1.0,3.0,67,0.00,,,0.00,Wunderground v.1.15,2013-06-11 15:48:00,
2013-06-11 10:50:00,81.6,69.6,29.91,South,171,1.0,3.0,67,0.00,,,0.00,Wunderground v.1.15,2013-06-11 15:50:00,
2013-06-11 10:52:00,81.6,70.0,29.91,South,171,1.0,1.0,68,0.00,,,0.00,Wunderground v.1.15,2013-06-11 15:52:00,
2013-06-11 10:54:00,81.4,69.8,29.91,SSE,158,1.0,2.0,68,0.00,,,0.00,Wunderground v.1.15,2013-06-11 15:54:00,
2013-06-11 10:56:00,81.2,69.6,29.91,SSE,160,1.0,3.0,68,0.00,,,0.00,Wunderground v.1.15,2013-06-11 15:56:00,
2013-06-11 11:00:00,81.2,70.1,29.91,South,186,1.0,3.0,69,0.00,,,0.00,Wunderground v.1.15,2013-06-11 16:00:00,
2013-06-11 11:01:00,81.4,69.4,29.92,South,171,2.0,2.0,67,0.00,,,0.00,Wunderground v.1.15,2013-06-11 16:01:00,
2013-06-11 11:02:00,81.4,69.4,29.92,SSE,168,2.0,5.0,67,0.00,,,0.00,Wunderground v.1.15,2013-06-11 16:02:00,
2013-06-11 11:03:00,81.4,69.4,29.92,South,172,2.0,5.0,67,0.00,,,0.00,Wunderground v.1.15,2013-06-11 16:03:00,
2013-06-11 11:08:00,82.2,70.1,29.92,SE,127,2.0,5.0,67,0.00,,,0.00,Wunderground v.1.15,2013-06-11 16:08:00,
2013-06-11 11:09:00,82.4,69.4,29.92,SE,127,2.0,5.0,65,0.00,,,0.00,Wunderground v.1.15,2013-06-11 16:09:00,
2013-06-11 11:12:00,82.4,69.4,29.92,SE,140,3.0,3.0,65,0.00,,,0.00,Wunderground v.1.15,2013-06-11 16:12:00,
2013-06-11 11:16:00,82.8,68.9,29.92,SSE,154,3.0,7.0,63,0.00,,,0.00,Wunderground v.1.15,2013-06-11 16:16:00,
2013-06-11 11:18:00,83.0,69.1,29.92,SE,138,3.0,7.0,63,0.00,,,0.00,Wunderground v.1.15,2013-06-11 16:18:00,
2013-06-11 11:19:00,83.0,69.1,29.92,SSW,205,3.0,10.0,63,0.00,,,0.00,Wunderground v.1.15,2013-06-11 16:19:00,
2013-06-11 11:21:00,83.4,70.4,29.92,South,184,3.0,10.0,65,0.00,,,0.00,Wunderground v.1.15,2013-06-11 16:21:00,
2013-06-11 11:22:00,83.4,69.9,29.92,South,188,3.0,3.0,64,0.00,,,0.00,Wunderground v.1.15,2013-06-11 16:22:00,
2013-06-11 11:24:00,83.6,69.7,29.92,SSW,198,3.0,4.0,63,0.00,,,0.00,Wunderground v.1.15,2013-06-11 16:24:00,
2013-06-11 11:27:00,83.8,69.4,29.92,SSE,165,3.0,5.0,62,0.00,,,0.00,Wunderground v.1.15,2013-06-11 16:27:00,
2013-06-11 11:28:00,84.0,69.6,29.92,SSW,192,3.0,5.0,62,0.00,,,0.00,Wunderground v.1.15,2013-06-11 16:28:00,
2013-06-11 11:29:00,84.0,69.6,29.92,South,189,2.0,8.0,62,0.00,,,0.00,Wunderground v.1.15,2013-06-11 16:29:00,
2013-06-11 11:32:00,83.8,69.4,29.92,South,171,3.0,5.0,62,0.00,,,0.00,Wunderground v.1.15,2013-06-11 16:32:00,
2013-06-11 11:34:00,83.6,69.2,29.92,SSE,165,2.0,5.0,62,0.00,,,0.00,Wunderground v.1.15,2013-06-11 16:34:00,
2013-06-11 11:35:00,83.6,69.2,29.92,SSE,167,2.0,5.0,62,0.00,,,0.00,Wunderground v.1.15,2013-06-11 16:35:00,
2013-06-11 11:36:00,83.6,68.2,29.92,SSE,165,2.0,5.0,60,0.00,,,0.00,Wunderground v.1.15,2013-06-11 16:36:00,
2013-06-11 11:38:00,83.8,68.9,29.92,SSW,205,2.0,5.0,61,0.00,,,0.00,Wunderground v.1.15,2013-06-11 16:38:00,
2013-06-11 11:39:00,84.0,69.1,29.92,SE,137,2.0,5.0,61,0.00,,,0.00,Wunderground v.1.15,2013-06-11 16:39:00,
2013-06-11 11:42:00,84.0,69.1,29.92,SSE,151,2.0,3.0,61,0.00,,,0.00,Wunderground v.1.15,2013-06-11 16:42:00,
2013-06-11 11:45:00,83.8,69.4,29.92,SSE,151,3.0,3.0,62,0.00,,,0.00,Wunderground v.1.15,2013-06-11 16:45:00,
2013-06-11 11:46:00,83.8,69.4,29.92,South,186,3.0,6.0,62,0.00,,,0.00,Wunderground v.1.15,2013-06-11 16:46:00,
2013-06-11 11:49:00,83.6,68.7,29.92,South,185,3.0,6.0,61,0.00,,,0.00,Wunderground v.1.15,2013-06-11 16:49:00,
2013-06-11 11:50:00,83.6,68.7,29.92,South,169,3.0,6.0,61,0.00,,,0.00,Wunderground v.1.15,2013-06-11 16:50:00,
2013-06-11 11:51:00,83.4,68.1,29.92,SE,130,3.0,7.0,60,0.00,,,0.00,Wunderground v.1.15,2013-06-11 16:51:00,
2013-06-11 11:52:00,83.4,68.1,29.92,SE,127,3.0,7.0,60,0.00,,,0.00,Wunderground v.1.15,2013-06-11 16:52:00,
2013-06-11 11:54:00,83.4,68.1,29.92,SE,130,3.0,7.0,60,0.00,,,0.00,Wunderground v.1.15,2013-06-11 16:54:00,
2013-06-11 11:56:00,83.6,68.2,29.92,ESE,121,4.0,7.0,60,0.00,,,0.00,Wunderground v.1.15,2013-06-11 16:56:00,
2013-06-11 11:57:00,83.8,68.4,29.92,SSE,161,4.0,8.0,60,0.00,,,0.00,Wunderground v.1.15,2013-06-11 16:57:00,
2013-06-11 12:01:00,83.6,67.8,29.92,SE,136,4.0,5.0,59,0.00,,,0.00,Wunderground v.1.15,2013-06-11 17:01:00,
2013-06-11 12:03:00,83.6,67.8,29.92,SSE,150,4.0,5.0,59,0.00,,,0.00,Wunderground v.1.15,2013-06-11 17:03:00,
2013-06-11 12:05:00,83.8,67.9,29.92,South,169,4.0,5.0,59,0.00,,,0.00,Wunderground v.1.15,2013-06-11 17:05:00,
2013-06-11 12:09:00,84.3,68.9,29.92,SSW,206,4.0,5.0,60,0.00,,,0.00,Wunderground v.1.15,2013-06-11 17:09:00,
2013-06-11 12:10:00,84.5,68.6,29.92,South,179,4.0,5.0,59,0.00,,,0.00,Wunderground v.1.15,2013-06-11 17:10:00,
2013-06-11 12:12:00,84.7,68.8,29.92,SSW,198,3.0,3.0,59,0.00,,,0.00,Wunderground v.1.15,2013-06-11 17:12:00,
2013-06-11 12:13:00,84.7,69.3,29.92,SSW,198,3.0,4.0,60,0.00,,,0.00,Wunderground v.1.15,2013-06-11 17:13:00,
2013-06-11 12:16:00,84.7,68.3,29.92,South,175,2.0,4.0,58,0.00,,,0.00,Wunderground v.1.15,2013-06-11 17:16:00,
2013-06-11 12:18:00,84.9,69.0,29.92,SSW,192,2.0,4.0,59,0.00,,,0.00,Wunderground v.1.15,2013-06-11 17:18:00,
2013-06-11 12:19:00,84.9,68.0,29.92,SSW,192,2.0,4.0,57,0.00,,,0.00,Wunderground v.1.15,2013-06-11 17:19:00,
2013-06-11 12:21:00,85.1,68.2,29.92,SSE,167,2.0,4.0,57,0.00,,,0.00,Wunderground v.1.15,2013-06-11 17:21:00,
2013-06-11 12:22:00,85.1,68.2,29.92,SSW,193,2.0,2.0,57,0.00,,,0.00,Wunderground v.1.15,2013-06-11 17:22:00,
2013-06-11 12:23:00,85.3,68.8,29.92,SSW,193,2.0,2.0,58,0.00,,,0.00,Wunderground v.1.15,2013-06-11 17:23:00,
2013-06-11 12:26:00,85.1,68.7,29.92,SE,141,3.0,8.0,58,0.00,,,0.00,Wunderground v.1.15,2013-06-11 17:26:00,
2013-06-11 12:27:00,85.1,68.7,29.92,SSE,152,3.0,8.0,58,0.00,,,0.00,Wunderground v.1.15,2013-06-11 17:27:00,
2013-06-11 12:28:00,85.3,68.8,29.92,SSW,199,3.0,8.0,58,0.00,,,0.00,Wunderground v.1.15,2013-06-11 17:28:00,
2013-06-11 12:30:00,85.5,68.5,29.92,South,182,3.0,8.0,57,0.00,,,0.00,Wunderground v.1.15,2013-06-11 17:30:00,
2013-06-11 12:33:00,85.5,68.0,29.92,South,186,3.0,3.0,56,0.00,,,0.00,Wunderground v.1.15,2013-06-11 17:33:00,
2013-06-11 12:36:00,85.3,68.3,29.92,SE,140,3.0,4.0,57,0.00,,,0.00,Wunderground v.1.15,2013-06-11 17:36:00,
2013-06-11 12:37:00,85.1,68.2,29.92,South,169,3.0,5.0,57,0.00,,,0.00,Wunderground v.1.15,2013-06-11 17:37:00,
2013-06-11 12:38:00,85.1,68.2,29.92,SE,137,3.0,10.0,57,0.00,,,0.00,Wunderground v.1.15,2013-06-11 17:38:00,
2013-06-11 12:42:00,84.9,68.5,29.92,SE,124,4.0,6.0,58,0.00,,,0.00,Wunderground v.1.15,2013-06-11 17:42:00,
2013-06-11 12:44:00,84.7,68.3,29.92,ESE,121,4.0,6.0,58,0.00,,,0.00,Wunderground v.1.15,2013-06-11 17:44:00,
2013-06-11 12:45:00,84.7,68.8,29.92,ESE,123,4.0,6.0,59,0.00,,,0.00,Wunderground v.1.15,2013-06-11 17:45:00,
2013-06-11 12:50:00,84.7,69.3,29.91,South,169,3.0,8.0,60,0.00,,,0.00,Wunderground v.1.15,2013-06-11 17:50:00,
2013-06-11 12:52:00,84.9,68.5,29.91,SSE,154,4.0,4.0,58,0.00,,,0.00,Wunderground v.1.15,2013-06-11 17:52:00,
2013-06-11 12:56:00,84.9,69.0,29.91,SSE,147,4.0,4.0,59,0.00,,,0.00,Wunderground v.1.15,2013-06-11 17:56:00,
2013-06-11 12:57:00,85.1,69.7,29.91,South,172,4.0,4.0,60,0.00,,,0.00,Wunderground v.1.15,2013-06-11 17:57:00,
2013-06-11 13:00:00,85.3,69.3,29.91,SSE,161,4.0,6.0,59,0.00,,,0.00,Wunderground v.1.15,2013-06-11 18:00:00,
2013-06-11 13:01:00,85.3,68.3,29.91,South,178,3.0,3.0,57,0.00,,,0.00,Wunderground v.1.15,2013-06-11 18:01:00,
2013-06-11 13:05:00,85.1,67.6,29.91,South,176,4.0,10.0,56,0.00,,,0.00,Wunderground v.1.15,2013-06-11 18:05:00,
2013-06-11 13:07:00,84.7,67.3,29.91,South,188,4.0,10.0,56,0.00,,,0.00,Wunderground v.1.15,2013-06-11 18:07:00,
2013-06-11 13:08:00,84.7,67.8,29.91,SSE,160,4.0,10.0,57,0.00,,,0.00,Wunderground v.1.15,2013-06-11 18:08:00,
2013-06-11 13:10:00,84.9,68.0,29.91,SW,217,4.0,10.0,57,0.00,,,0.00,Wunderground v.1.15,2013-06-11 18:10:00,
2013-06-11 13:11:00,84.9,68.0,29.91,South,176,4.0,10.0,57,0.00,,,0.00,Wunderground v.1.15,2013-06-11 18:11:00,
2013-06-11 13:15:00,84.7,68.3,29.91,SE,130,4.0,9.0,58,0.00,,,0.00,Wunderground v.1.15,2013-06-11 18:15:00,
2013-06-11 13:16:00,84.7,68.3,29.91,SSW,209,4.0,9.0,58,0.00,,,0.00,Wunderground v.1.15,2013-06-11 18:16:00,
2013-06-11 13:19:00,84.7,68.3,29.91,SE,141,4.0,9.0,58,0.00,,,0.00,Wunderground v.1.15,2013-06-11 18:19:00,
2013-06-11 13:20:00,84.5,68.1,29.91,SSE,151,4.0,9.0,58,0.00,,,0.00,Wunderground v.1.15,2013-06-11 18:20:00,
2013-06-11 13:21:00,84.3,67.9,29.91,SSE,154,5.0,10.0,58,0.00,,,0.00,Wunderground v.1.15,2013-06-11 18:21:00,
2013-06-11 13:26:00,84.1,68.2,29.91,SSE,150,4.0,10.0,59,0.00,,,0.00,Wunderground v.1.15,2013-06-11 18:26:00,
2013-06-11 13:28:00,84.3,67.9,29.91,SW,215,4.0,10.0,58,0.00,,,0.00,Wunderground v.1.15,2013-06-11 18:28:00,
2013-06-11 13:33:00,84.7,68.3,29.91,South,175,3.0,5.0,58,0.00,,,0.00,Wunderground v.1.15,2013-06-11 18:33:00,
2013-06-11 13:34:00,84.7,68.3,29.91,SSW,209,2.0,5.0,58,0.00,,,0.00,Wunderground v.1.15,2013-06-11 18:34:00,
2013-06-11 13:35:00,84.7,68.8,29.91,SSE,147,3.0,5.0,59,0.00,,,0.00,Wunderground v.1.15,2013-06-11 18:35:00,
2013-06-11 13:36:00,84.7,68.8,29.91,South,171,3.0,5.0,59,0.00,,,0.00,Wunderground v.1.15,2013-06-11 18:36:00,
2013-06-11 13:38:00,84.7,68.8,29.91,South,169,2.0,5.0,59,0.00,,,0.00,Wunderground v.1.15,2013-06-11 18:38:00,
2013-06-11 13:39:00,84.9,69.0,29.91,SSW,195,2.0,7.0,59,0.00,,,0.00,Wunderground v.1.15,2013-06-11 18:39:00,
2013-06-11 13:42:00,85.3,69.3,29.91,SE,130,3.0,3.0,59,0.00,,,0.00,Wunderground v.1.15,2013-06-11 18:42:00,
2013-06-11 13:43:00,85.3,69.3,29.91,SSW,200,2.0,4.0,59,0.00,,,0.00,Wunderground v.1.15,2013-06-11 18:43:00,
2013-06-11 13:44:00,85.7,69.2,29.91,SW,216,2.0,5.0,58,0.00,,,0.00,Wunderground v.1.15,2013-06-11 18:44:00,
2013-06-11 13:45:00,85.7,68.7,29.91,SW,223,3.0,5.0,57,0.00,,,0.00,Wunderground v.1.15,2013-06-11 18:45:00,
2013-06-11 13:48:00,85.9,69.4,29.90,SSE,165,3.0,5.0,58,0.00,,,0.00,Wunderground v.1.15,2013-06-11 18:48:00,
2013-06-11 13:51:00,86.3,69.8,29.90,South,189,2.0,5.0,58,0.00,,,0.00,Wunderground v.1.15,2013-06-11 18:51:00,
2013-06-11 13:52:00,86.3,68.8,29.90,WSW,241,2.0,2.0,56,0.00,,,0.00,Wunderground v.1.15,2013-06-11 18:52:00,
2013-06-11 13:53:00,86.5,68.9,29.90,West,265,2.0,4.0,56,0.00,,,0.00,Wunderground v.1.15,2013-06-11 18:53:00,
2013-06-11 13:58:00,86.7,69.6,29.90,SE,143,4.0,7.0,57,0.00,,,0.00,Wunderground v.1.15,2013-06-11 18:58:00,
2013-06-11 14:00:00,87.0,69.9,29.90,South,188,4.0,7.0,57,0.00,,,0.00,Wunderground v.1.15,2013-06-11 19:00:00,
2013-06-11 14:04:00,87.4,69.8,29.89,SSW,200,4.0,4.0,56,0.00,,,0.00,Wunderground v.1.15,2013-06-11 19:04:00,
2013-06-11 14:05:00,87.4,69.8,29.89,South,176,4.0,4.0,56,0.00,,,0.00,Wunderground v.1.15,2013-06-11 19:05:00,
2013-06-11 14:06:00,87.2,69.1,29.89,SE,144,4.0,8.0,55,0.00,,,0.00,Wunderground v.1.15,2013-06-11 19:06:00,
2013-06-11 14:11:00,87.0,69.4,29.89,SSE,161,3.0,8.0,56,0.00,,,0.00,Wunderground v.1.15,2013-06-11 19:11:00,
2013-06-11 14:14:00,87.0,68.9,29.89,SSE,161,2.0,3.0,55,0.00,,,0.00,Wunderground v.1.15,2013-06-11 19:14:00,
2013-06-11 14:15:00,87.0,68.9,29.89,South,181,2.0,3.0,55,0.00,,,0.00,Wunderground v.1.15,2013-06-11 19:15:00,
2013-06-11 14:19:00,87.2,69.1,29.89,South,189,1.0,3.0,55,0.00,,,0.00,Wunderground v.1.15,2013-06-11 19:19:00,
2013-06-11 14:20:00,87.2,69.6,29.89,WSW,256,1.0,3.0,56,0.00,,,0.00,Wunderground v.1.15,2013-06-11 19:20:00,
2013-06-11 14:21:00,87.2,69.1,29.89,WSW,240,1.0,3.0,55,0.00,,,0.00,Wunderground v.1.15,2013-06-11 19:21:00,
2013-06-11 14:25:00,87.6,70.0,29.89,SSE,160,2.0,6.0,56,0.00,,,0.00,Wunderground v.1.15,2013-06-11 19:25:00,
2013-06-11 14:26:00,87.6,69.4,29.89,SSE,168,2.0,6.0,55,0.00,,,0.00,Wunderground v.1.15,2013-06-11 19:26:00,
2013-06-11 14:28:00,87.8,69.6,29.89,SSE,167,2.0,6.0,55,0.00,,,0.00,Wunderground v.1.15,2013-06-11 19:28:00,
2013-06-11 14:31:00,88.0,68.7,29.87,SSE,160,3.0,6.0,53,0.00,,,0.00,Wunderground v.1.15,2013-06-11 19:31:00,
2013-06-11 14:37:00,87.6,68.9,29.87,SSE,150,3.0,8.0,54,0.00,,,0.00,Wunderground v.1.15,2013-06-11 19:37:00,
2013-06-11 14:38:00,87.6,68.4,29.87,South,171,3.0,8.0,53,0.00,,,0.00,Wunderground v.1.15,2013-06-11 19:38:00,
2013-06-11 14:39:00,87.8,69.1,29.87,South,171,2.0,8.0,54,0.00,,,0.00,Wunderground v.1.15,2013-06-11 19:39:00,
2013-06-11 14:45:00,88.2,69.5,29.87,SW,230,1.0,2.0,54,0.00,,,0.00,Wunderground v.1.15,2013-06-11 19:45:00,
2013-06-11 14:46:00,88.2,68.9,29.87,SW,230,1.0,2.0,53,0.00,,,0.00,Wunderground v.1.15,2013-06-11 19:46:00,
2013-06-11 14:47:00,88.4,69.1,29.87,SW,230,1.0,2.0,53,0.00,,,0.00,Wunderground v.1.15,2013-06-11 19:47:00,
2013-06-11 14:50:00,88.6,69.3,29.87,SE,133,1.0,2.0,53,0.00,,,0.00,Wunderground v.1.15,2013-06-11 19:50:00,
2013-06-11 14:51:00,88.6,69.3,29.87,SSE,162,2.0,6.0,53,0.00,,,0.00,Wunderground v.1.15,2013-06-11 19:51:00,
2013-06-11 14:53:00,88.4,69.1,29.87,South,178,2.0,6.0,53,0.00,,,0.00,Wunderground v.1.15,2013-06-11 19:53:00,
2013-06-11 14:56:00,88.2,69.5,29.87,East,90,3.0,7.0,54,0.00,,,0.00,Wunderground v.1.15,2013-06-11 19:56:00,
2013-06-11 14:59:00,88.2,68.9,29.87,South,176,5.0,11.0,53,0.00,,,0.00,Wunderground v.1.15,2013-06-11 19:59:00,
2013-06-11 15:00:00,88.2,69.5,29.87,SE,145,5.0,11.0,54,0.00,,,0.00,Wunderground v.1.15,2013-06-11 20:00:00,
2013-06-11 15:03:00,88.4,68.5,29.87,ESE,119,4.0,8.0,52,0.00,,,0.00,Wunderground v.1.15,2013-06-11 20:03:00,
2013-06-11 15:04:00,88.4,69.6,29.87,SE,136,4.0,8.0,54,0.00,,,0.00,Wunderground v.1.15,2013-06-11 20:04:00,
2013-06-11 15:05:00,88.6,69.8,29.87,SSE,165,4.0,8.0,54,0.00,,,0.00,Wunderground v.1.15,2013-06-11 20:05:00,
2013-06-11 15:09:00,89.0,69.1,29.87,SSE,167,3.0,8.0,52,0.00,,,0.00,Wunderground v.1.15,2013-06-11 20:09:00,
2013-06-11 15:11:00,88.8,68.3,29.87,SSE,164,3.0,3.0,51,0.00,,,0.00,Wunderground v.1.15,2013-06-11 20:11:00,
2013-06-11 15:12:00,88.8,68.9,29.87,South,174,3.0,8.0,52,0.00,,,0.00,Wunderground v.1.15,2013-06-11 20:12:00,
2013-06-11 15:14:00,88.6,68.7,29.87,South,185,3.0,8.0,52,0.00,,,0.00,Wunderground v.1.15,2013-06-11 20:14:00,
2013-06-11 15:15:00,88.6,68.7,29.87,South,188,3.0,8.0,52,0.00,,,0.00,Wunderground v.1.15,2013-06-11 20:15:00,
2013-06-11 15:17:00,89.3,68.8,29.86,South,171,3.0,8.0,51,0.00,,,0.00,Wunderground v.1.15,2013-06-11 20:17:00,
2013-06-11 15:19:00,89.3,68.2,29.86,SE,138,3.0,8.0,50,0.00,,,0.00,Wunderground v.1.15,2013-06-11 20:19:00,
2013-06-11 15:21:00,89.5,69.0,29.86,SSW,199,3.0,3.0,51,0.00,,,0.00,Wunderground v.1.15,2013-06-11 20:21:00,
2013-06-11 15:22:00,89.7,69.2,29.86,SSW,192,3.0,8.0,51,0.00,,,0.00,Wunderground v.1.15,2013-06-11 20:22:00,
2013-06-11 15:25:00,89.3,68.2,29.86,SSE,154,4.0,10.0,50,0.00,,,0.00,Wunderground v.1.15,2013-06-11 20:25:00,
2013-06-11 15:27:00,89.3,69.4,29.86,SSE,151,4.0,10.0,52,0.00,,,0.00,Wunderground v.1.15,2013-06-11 20:27:00,
2013-06-11 15:28:00,89.5,69.0,29.86,SSW,210,4.0,10.0,51,0.00,,,0.00,Wunderground v.1.15,2013-06-11 20:28:00,
2013-06-11 15:29:00,89.7,69.2,29.86,South,191,4.0,10.0,51,0.00,,,0.00,Wunderground v.1.15,2013-06-11 20:29:00,
2013-06-11 15:32:00,89.9,68.8,29.86,SSE,150,3.0,4.0,50,0.00,,,0.00,Wunderground v.1.15,2013-06-11 20:32:00,
2013-06-11 15:35:00,89.9,67.6,29.86,SE,141,3.0,8.0,48,0.00,,,0.00,Wunderground v.1.15,2013-06-11 20:35:00,
2013-06-11 15:37:00,89.7,68.6,29.86,SSW,209,3.0,8.0,50,0.00,,,0.00,Wunderground v.1.15,2013-06-11 20:37:00,
2013-06-11 15:38:00,89.7,68.6,29.86,South,176,3.0,8.0,50,0.00,,,0.00,Wunderground v.1.15,2013-06-11 20:38:00,
2013-06-11 15:42:00,89.9,68.8,29.86,SSE,168,4.0,8.0,50,0.00,,,0.00,Wunderground v.1.15,2013-06-11 20:42:00,
2013-06-11 15:45:00,89.9,67.6,29.86,SE,131,4.0,8.0,48,0.00,,,0.00,Wunderground v.1.15,2013-06-11 20:45:00,
2013-06-11 15:47:00,89.9,68.2,29.85,South,178,4.0,8.0,49,0.00,,,0.00,Wunderground v.1.15,2013-06-11 20:47:00,
2013-06-11 15:48:00,89.9,68.8,29.85,SSE,162,4.0,8.0,50,0.00,,,0.00,Wunderground v.1.15,2013-06-11 20:48:00,
2013-06-11 15:51:00,90.3,67.9,29.85,SSW,203,4.0,8.0,48,0.00,,,0.00,Wunderground v.1.15,2013-06-11 20:51:00,
2013-06-11 15:53:00,90.5,68.1,29.85,SW,229,4.0,5.0,48,0.00,,,0.00,Wunderground v.1.15,2013-06-11 20:53:00,
2013-06-11 15:54:00,90.7,68.9,29.85,SSW,212,4.0,5.0,49,0.00,,,0.00,Wunderground v.1.15,2013-06-11 20:54:00,
2013-06-11 15:56:00,90.7,68.9,29.85,SSE,168,4.0,11.0,49,0.00,,,0.00,Wunderground v.1.15,2013-06-11 20:56:00,
2013-06-11 15:58:00,90.7,68.9,29.85,ESE,123,5.0,11.0,49,0.00,,,0.00,Wunderground v.1.15,2013-06-11 20:58:00,
2013-06-11 16:01:00,90.3,67.9,29.86,SE,138,6.0,6.0,48,0.00,,,0.00,Wunderground v.1.15,2013-06-11 21:01:00,
2013-06-11 16:02:00,90.3,68.5,29.86,South,184,6.0,6.0,49,0.00,,,0.00,Wunderground v.1.15,2013-06-11 21:02:00,
2013-06-11 16:03:00,90.3,68.5,29.86,SE,137,6.0,6.0,49,0.00,,,0.00,Wunderground v.1.15,2013-06-11 21:03:00,
2013-06-11 16:08:00,90.1,69.0,29.86,SE,134,7.0,11.0,50,0.00,,,0.00,Wunderground v.1.15,2013-06-11 21:08:00,
2013-06-11 16:11:00,90.1,68.4,29.86,SE,127,7.0,14.0,49,0.00,,,0.00,Wunderground v.1.15,2013-06-11 21:11:00,
2013-06-11 16:14:00,89.7,67.4,29.86,SE,144,8.0,13.0,48,0.00,,,0.00,Wunderground v.1.15,2013-06-11 21:14:00,
2013-06-11 16:17:00,89.3,67.6,29.86,SSE,154,8.0,13.0,49,0.00,,,0.00,Wunderground v.1.15,2013-06-11 21:17:00,
2013-06-11 16:19:00,89.5,68.4,29.86,SSE,155,8.0,13.0,50,0.00,,,0.00,Wunderground v.1.15,2013-06-11 21:19:00,
2013-06-11 16:22:00,89.7,68.6,29.86,SE,137,8.0,14.0,50,0.00,,,0.00,Wunderground v.1.15,2013-06-11 21:22:00,
2013-06-11 16:23:00,89.7,68.0,29.86,ESE,121,8.0,14.0,49,0.00,,,0.00,Wunderground v.1.15,2013-06-11 21:23:00,
2013-06-11 16:25:00,89.3,68.2,29.86,SE,124,9.0,22.0,50,0.00,,,0.00,Wunderground v.1.15,2013-06-11 21:25:00,
2013-06-11 16:26:00,87.4,67.1,29.86,ESE,120,10.0,26.0,51,0.00,,,0.00,Wunderground v.1.15,2013-06-11 21:26:00,
2013-06-11 16:27:00,85.3,66.8,29.86,ESE,103,12.0,26.0,54,0.00,,,0.00,Wunderground v.1.15,2013-06-11 21:27:00,
2013-06-11 16:32:00,81.8,66.1,29.90,SE,126,14.0,33.0,59,0.00,,,0.00,Wunderground v.1.15,2013-06-11 21:32:00,
2013-06-11 16:34:00,80.3,64.7,29.90,ENE,64,18.0,33.0,59,0.00,,,0.00,Wunderground v.1.15,2013-06-11 21:34:00,
2013-06-11 16:36:00,78.8,66.5,29.90,SSE,148,18.0,33.0,66,0.00,,,0.00,Wunderground v.1.15,2013-06-11 21:36:00,
2013-06-11 16:38:00,77.0,67.3,29.90,ESE,116,18.0,33.0,72,0.50,,,0.02,Wunderground v.1.15,2013-06-11 21:38:00,
2013-06-11 16:39:00,76.0,67.1,29.90,SE,140,18.0,33.0,74,0.66,,,0.03,Wunderground v.1.15,2013-06-11 21:39:00,
2013-06-11 16:42:00,74.6,67.7,29.90,SSE,151,19.0,19.0,79,0.60,,,0.06,Wunderground v.1.15,2013-06-11 21:42:00,
2013-06-11 16:44:00,73.7,67.5,29.90,SSE,165,16.0,19.0,81,0.33,,,0.08,Wunderground v.1.15,2013-06-11 21:44:00,
2013-06-11 16:46:00,72.8,67.3,29.93,SE,128,15.0,19.0,83,0.49,,,0.09,Wunderground v.1.15,2013-06-11 21:46:00,
2013-06-11 16:47:00,72.7,67.6,29.93,South,186,14.0,19.0,84,0.27,,,0.09,Wunderground v.1.15,2013-06-11 21:47:00,
2013-06-11 16:48:00,72.5,67.4,29.93,South,188,12.0,19.0,84,0.27,,,0.10,Wunderground v.1.15,2013-06-11 21:48:00,
2013-06-11 16:52:00,71.6,67.2,29.93,SSW,196,11.0,11.0,86,0.20,,,0.11,Wunderground v.1.15,2013-06-11 21:52:00,
2013-06-11 16:53:00,71.5,67.4,29.93,SSW,193,11.0,11.0,87,0.14,,,0.11,Wunderground v.1.15,2013-06-11 21:53:00,
2013-06-11 16:54:00,71.5,67.4,29.93,South,191,11.0,19.0,87,0.13,,,0.11,Wunderground v.1.15,2013-06-11 21:54:00,
2013-06-11 16:56:00,71.1,67.0,29.93,South,189,11.0,19.0,87,0.38,,,0.13,Wunderground v.1.15,2013-06-11 21:56:00,
2013-06-11 16:58:00,70.9,66.5,29.93,WSW,250,11.0,19.0,86,0.21,,,0.13,Wunderground v.1.15,2013-06-11 21:58:00,
2013-06-11 16:59:00,70.8,66.7,29.93,SSW,212,10.0,19.0,87,0.17,,,0.13,Wunderground v.1.15,2013-06-11 21:59:00,
2013-06-11 17:01:00,70.8,66.7,29.91,SSW,206,8.0,8.0,87,0.11,,,0.13,Wunderground v.1.15,2013-06-11 22:01:00,
2013-06-11 17:04:00,70.6,66.5,29.91,South,175,6.0,8.0,87,0.09,,,0.14,Wunderground v.1.15,2013-06-11 22:04:00,
2013-06-11 17:05:00,70.6,66.5,29.91,South,174,5.0,8.0,87,0.09,,,0.14,Wunderground v.1.15,2013-06-11 22:05:00,
2013-06-11 17:06:00,70.8,66.7,29.91,South,182,4.0,8.0,87,0.09,,,0.14,Wunderground v.1.15,2013-06-11 22:06:00,
2013-06-11 17:07:00,70.6,66.5,29.91,South,184,3.0,8.0,87,0.09,,,0.14,Wunderground v.1.15,2013-06-11 22:07:00,
2013-06-11 17:09:00,70.6,66.5,29.91,South,181,3.0,8.0,87,0.09,,,0.14,Wunderground v.1.15,2013-06-11 22:09:00,
2013-06-11 17:13:00,70.4,66.7,29.91,SW,224,3.0,4.0,88,0.06,,,0.14,Wunderground v.1.15,2013-06-11 22:13:00,
2013-06-11 17:14:00,70.4,66.7,29.91,SW,227,3.0,4.0,88,0.05,,,0.14,Wunderground v.1.15,2013-06-11 22:14:00,
2013-06-11 17:15:00,70.4,66.7,29.91,WSW,237,3.0,4.0,88,0.05,,,0.14,Wunderground v.1.15,2013-06-11 22:15:00,
2013-06-11 17:18:00,70.4,67.0,29.89,South,186,3.0,7.0,89,0.04,,,0.14,Wunderground v.1.15,2013-06-11 22:18:00,
2013-06-11 17:19:00,70.6,67.2,29.89,South,186,3.0,7.0,89,0.04,,,0.14,Wunderground v.1.15,2013-06-11 22:19:00,
2013-06-11 17:21:00,70.6,67.2,29.89,South,186,3.0,3.0,89,0.00,,,0.14,Wunderground v.1.15,2013-06-11 22:21:00,
2013-06-11 17:23:00,70.8,67.4,29.89,South,186,2.0,3.0,89,0.00,,,0.14,Wunderground v.1.15,2013-06-11 22:23:00,
2013-06-11 17:24:00,70.8,67.4,29.89,South,186,2.0,3.0,89,0.00,,,0.14,Wunderground v.1.15,2013-06-11 22:24:00,
2013-06-11 17:27:00,71.1,68.0,29.89,South,186,2.0,3.0,90,0.00,,,0.14,Wunderground v.1.15,2013-06-11 22:27:00,
2013-06-11 17:28:00,71.3,68.2,29.89,South,186,1.0,4.0,90,0.00,,,0.14,Wunderground v.1.15,2013-06-11 22:28:00,
2013-06-11 17:31:00,71.5,68.4,29.87,South,186,1.0,1.0,90,0.00,,,0.14,Wunderground v.1.15,2013-06-11 22:31:00,
2013-06-11 17:33:00,71.6,68.8,29.87,South,186,1.0,2.0,91,0.00,,,0.14,Wunderground v.1.15,2013-06-11 22:33:00,
2013-06-11 17:37:00,71.8,68.7,29.87,South,186,1.0,2.0,90,0.00,,,0.14,Wunderground v.1.15,2013-06-11 22:37:00,
2013-06-11 17:38:00,71.8,69.0,29.87,South,186,1.0,2.0,91,0.00,,,0.14,Wunderground v.1.15,2013-06-11 22:38:00,
2013-06-11 17:39:00,71.8,69.0,29.87,South,186,0.0,2.0,91,0.00,,,0.14,Wunderground v.1.15,2013-06-11 22:39:00,
2013-06-11 17:41:00,71.8,69.0,29.87,South,186,0.0,2.0,91,0.00,,,0.14,Wunderground v.1.15,2013-06-11 22:41:00,
2013-06-11 17:44:00,72.0,69.2,29.87,South,186,0.0,0.0,91,0.00,,,0.14,Wunderground v.1.15,2013-06-11 22:44:00,
2013-06-11 17:46:00,72.0,69.2,29.88,South,186,0.0,0.0,91,0.00,,,0.14,Wunderground v.1.15,2013-06-11 22:46:00,
2013-06-11 17:47:00,72.0,69.2,29.88,South,186,0.0,0.0,91,0.00,,,0.14,Wunderground v.1.15,2013-06-11 22:47:00,
2013-06-11 17:51:00,72.0,69.2,29.88,South,186,0.0,0.0,91,0.00,,,0.14,Wunderground v.1.15,2013-06-11 22:51:00,
2013-06-11 17:53:00,72.0,69.2,29.88,South,186,0.0,0.0,91,0.00,,,0.14,Wunderground v.1.15,2013-06-11 22:53:00,
2013-06-11 17:55:00,72.0,69.2,29.88,South,186,0.0,1.0,91,0.00,,,0.14,Wunderground v.1.15,2013-06-11 22:55:00,
2013-06-11 17:56:00,72.0,69.2,29.88,South,186,0.0,1.0,91,0.00,,,0.14,Wunderground v.1.15,2013-06-11 22:56:00,
2013-06-11 17:58:00,72.1,69.3,29.88,South,186,0.0,1.0,91,0.00,,,0.14,Wunderground v.1.15,2013-06-11 22:58:00,
2013-06-11 18:01:00,72.0,69.2,29.88,South,186,0.0,0.0,91,0.00,,,0.15,Wunderground v.1.15,2013-06-11 23:01:00,
2013-06-11 18:03:00,72.0,69.2,29.88,South,186,0.0,0.0,91,0.00,,,0.15,Wunderground v.1.15,2013-06-11 23:03:00,
2013-06-11 18:07:00,72.3,69.5,29.88,South,186,0.0,2.0,91,0.00,,,0.15,Wunderground v.1.15,2013-06-11 23:07:00,
2013-06-11 18:08:00,72.3,69.5,29.88,South,186,0.0,2.0,91,0.00,,,0.15,Wunderground v.1.15,2013-06-11 23:08:00,
2013-06-11 18:09:00,72.3,69.5,29.88,South,186,0.0,2.0,91,0.00,,,0.15,Wunderground v.1.15,2013-06-11 23:09:00,
2013-06-11 18:13:00,72.5,70.0,29.88,South,172,0.0,0.0,92,0.00,,,0.15,Wunderground v.1.15,2013-06-11 23:13:00,
2013-06-11 18:15:00,72.5,70.0,29.88,South,172,1.0,2.0,92,0.00,,,0.15,Wunderground v.1.15,2013-06-11 23:15:00,
2013-06-11 18:16:00,72.5,69.7,29.88,South,172,1.0,4.0,91,0.00,,,0.15,Wunderground v.1.15,2013-06-11 23:16:00,
2013-06-11 18:21:00,72.7,70.2,29.88,South,172,1.0,1.0,92,0.00,,,0.16,Wunderground v.1.15,2013-06-11 23:21:00,
2013-06-11 18:22:00,72.8,70.3,29.88,South,172,1.0,1.0,92,0.00,,,0.16,Wunderground v.1.15,2013-06-11 23:22:00,
2013-06-11 18:26:00,72.8,70.3,29.88,South,172,0.0,1.0,92,0.00,,,0.16,Wunderground v.1.15,2013-06-11 23:26:00,
2013-06-11 18:27:00,72.8,70.3,29.88,South,172,0.0,1.0,92,0.00,,,0.16,Wunderground v.1.15,2013-06-11 23:27:00,
2013-06-11 18:28:00,73.0,70.5,29.88,South,172,0.0,1.0,92,0.00,,,0.16,Wunderground v.1.15,2013-06-11 23:28:00,
2013-06-11 18:29:00,73.0,70.5,29.88,South,172,0.0,1.0,92,0.00,,,0.16,Wunderground v.1.15,2013-06-11 23:29:00,
2013-06-11 18:32:00,73.2,70.7,29.88,South,172,0.0,0.0,92,0.00,,,0.16,Wunderground v.1.15,2013-06-11 23:32:00,
2013-06-11 18:34:00,73.2,70.7,29.88,South,172,0.0,0.0,92,0.00,,,0.16,Wunderground v.1.15,2013-06-11 23:34:00,
2013-06-11 18:35:00,73.2,70.7,29.88,South,172,0.0,0.0,92,0.00,,,0.16,Wunderground v.1.15,2013-06-11 23:35:00,
2013-06-11 18:37:00,73.2,70.7,29.88,South,172,0.0,0.0,92,0.00,,,0.16,Wunderground v.1.15,2013-06-11 23:37:00,
2013-06-11 18:38:00,73.2,70.7,29.88,South,172,0.0,0.0,92,0.00,,,0.16,Wunderground v.1.15,2013-06-11 23:38:00,
2013-06-11 18:41:00,73.3,70.8,29.88,South,172,0.0,0.0,92,0.00,,,0.16,Wunderground v.1.15,2013-06-11 23:41:00,
2013-06-11 18:43:00,73.3,70.8,29.88,South,172,0.0,0.0,92,0.00,,,0.16,Wunderground v.1.15,2013-06-11 23:43:00,
2013-06-11 18:44:00,73.3,70.8,29.88,South,172,0.0,0.0,92,0.00,,,0.16,Wunderground v.1.15,2013-06-11 23:44:00,
2013-06-11 18:46:00,73.3,70.8,29.87,South,172,0.0,0.0,92,0.00,,,0.16,Wunderground v.1.15,2013-06-11 23:46:00,
2013-06-11 18:49:00,73.3,70.8,29.87,South,172,0.0,0.0,92,0.00,,,0.16,Wunderground v.1.15,2013-06-11 23:49:00,
2013-06-11 18:52:00,73.5,71.0,29.87,South,172,0.0,0.0,92,0.00,,,0.16,Wunderground v.1.15,2013-06-11 23:52:00,
2013-06-11 18:55:00,73.7,71.2,29.87,South,172,0.0,0.0,92,0.00,,,0.16,Wunderground v.1.15,2013-06-11 23:55:00,
2013-06-11 18:57:00,73.7,71.2,29.87,South,172,0.0,0.0,92,0.00,,,0.16,Wunderground v.1.15,2013-06-11 23:57:00,
2013-06-11 18:58:00,73.7,71.2,29.87,South,172,0.0,0.0,92,0.00,,,0.16,Wunderground v.1.15,2013-06-11 23:58:00,
2013-06-11 18:59:00,73.7,71.2,29.87,South,172,0.0,0.0,92,0.00,,,0.16,Wunderground v.1.15,2013-06-11 23:59:00,
2013-06-11 19:02:00,73.9,71.4,29.87,South,172,0.0,0.0,92,0.00,,,0.16,Wunderground v.1.15,2013-06-12 00:02:00,
2013-06-11 19:04:00,73.9,71.4,29.87,South,172,0.0,0.0,92,0.00,,,0.16,Wunderground v.1.15,2013-06-12 00:04:00,
2013-06-11 19:06:00,73.9,71.7,29.87,South,172,0.0,0.0,93,0.00,,,0.16,Wunderground v.1.15,2013-06-12 00:06:00,
2013-06-11 19:08:00,74.0,71.8,29.87,South,172,0.0,0.0,93,0.00,,,0.16,Wunderground v.1.15,2013-06-12 00:08:00,
2013-06-11 19:09:00,74.2,72.0,29.87,South,172,0.0,0.0,93,0.00,,,0.16,Wunderground v.1.15,2013-06-12 00:09:00,
2013-06-11 19:11:00,74.2,72.0,29.87,South,172,0.0,2.0,93,0.00,,,0.16,Wunderground v.1.15,2013-06-12 00:11:00,
2013-06-11 19:12:00,74.2,72.0,29.87,South,172,0.0,2.0,93,0.00,,,0.16,Wunderground v.1.15,2013-06-12 00:12:00,
2013-06-11 19:16:00,74.4,72.2,29.87,South,172,0.0,2.0,93,0.00,,,0.16,Wunderground v.1.15,2013-06-12 00:16:00,
2013-06-11 19:17:00,74.4,71.9,29.87,South,172,0.0,2.0,92,0.00,,,0.16,Wunderground v.1.15,2013-06-12 00:17:00,
2013-06-11 19:18:00,74.4,71.9,29.87,South,172,0.0,2.0,92,0.00,,,0.16,Wunderground v.1.15,2013-06-12 00:18:00,
2013-06-11 19:24:00,74.6,72.4,29.87,South,172,0.0,0.0,93,0.00,,,0.16,Wunderground v.1.15,2013-06-12 00:24:00,
2013-06-11 19:25:00,74.4,72.2,29.87,South,172,0.0,0.0,93,0.00,,,0.16,Wunderground v.1.15,2013-06-12 00:25:00,
2013-06-11 19:26:00,74.4,71.9,29.87,South,172,0.0,0.0,92,0.00,,,0.16,Wunderground v.1.15,2013-06-12 00:26:00,
2013-06-11 19:31:00,74.4,72.2,29.87,South,172,0.0,0.0,93,0.00,,,0.16,Wunderground v.1.15,2013-06-12 00:31:00,
2013-06-11 19:32:00,74.4,71.9,29.87,South,172,0.0,0.0,92,0.00,,,0.16,Wunderground v.1.15,2013-06-12 00:32:00,
2013-06-11 19:33:00,74.2,71.7,29.87,South,172,0.0,0.0,92,0.00,,,0.16,Wunderground v.1.15,2013-06-12 00:33:00,
2013-06-11 19:37:00,74.2,72.0,29.87,South,172,0.0,0.0,93,0.00,,,0.16,Wunderground v.1.15,2013-06-12 00:37:00,
2013-06-11 19:38:00,74.4,72.2,29.87,South,172,0.0,0.0,93,0.00,,,0.16,Wunderground v.1.15,2013-06-12 00:38:00,
2013-06-11 19:39:00,74.4,72.2,29.87,South,172,0.0,0.0,93,0.00,,,0.16,Wunderground v.1.15,2013-06-12 00:39:00,
2013-06-11 19:41:00,74.4,72.2,29.87,South,172,0.0,0.0,93,0.00,,,0.16,Wunderground v.1.15,2013-06-12 00:41:00,
2013-06-11 19:44:00,74.4,72.2,29.87,South,172,0.0,0.0,93,0.00,,,0.16,Wunderground v.1.15,2013-06-12 00:44:00,
2013-06-11 19:45:00,74.4,72.2,29.87,South,172,0.0,0.0,93,0.00,,,0.16,Wunderground v.1.15,2013-06-12 00:45:00,
2013-06-11 19:46:00,74.4,72.2,29.87,South,172,0.0,0.0,93,0.00,,,0.16,Wunderground v.1.15,2013-06-12 00:46:00,
2013-06-11 19:49:00,74.4,72.2,29.87,South,172,0.0,0.0,93,0.00,,,0.16,Wunderground v.1.15,2013-06-12 00:49:00,
2013-06-11 19:51:00,74.6,72.4,29.87,South,172,0.0,0.0,93,0.00,,,0.16,Wunderground v.1.15,2013-06-12 00:51:00,
2013-06-11 19:52:00,74.6,72.4,29.87,South,172,0.0,0.0,93,0.00,,,0.16,Wunderground v.1.15,2013-06-12 00:52:00,
2013-06-11 19:53:00,74.6,72.4,29.87,South,172,0.0,0.0,93,0.00,,,0.16,Wunderground v.1.15,2013-06-12 00:53:00,
2013-06-11 19:54:00,74.6,72.4,29.87,South,172,0.0,0.0,93,0.00,,,0.16,Wunderground v.1.15,2013-06-12 00:54:00,
2013-06-11 19:56:00,74.6,72.4,29.87,South,172,0.0,0.0,93,0.00,,,0.16,Wunderground v.1.15,2013-06-12 00:56:00,
2013-06-11 19:58:00,74.7,72.5,29.87,South,172,0.0,0.0,93,0.00,,,0.16,Wunderground v.1.15,2013-06-12 00:58:00,
2013-06-11 20:02:00,74.7,72.5,29.87,South,172,0.0,0.0,93,0.00,,,0.16,Wunderground v.1.15,2013-06-12 01:02:00,
2013-06-11 20:03:00,74.7,72.5,29.87,South,172,0.0,0.0,93,0.00,,,0.16,Wunderground v.1.15,2013-06-12 01:03:00,
2013-06-11 20:04:00,74.6,72.4,29.87,South,172,0.0,0.0,93,0.00,,,0.16,Wunderground v.1.15,2013-06-12 01:04:00,
2013-06-11 20:06:00,74.6,72.4,29.87,South,172,0.0,0.0,93,0.00,,,0.16,Wunderground v.1.15,2013-06-12 01:06:00,
2013-06-11 20:08:00,74.7,72.5,29.87,South,172,0.0,0.0,93,0.00,,,0.16,Wunderground v.1.15,2013-06-12 01:08:00,
2013-06-11 20:09:00,74.6,72.4,29.87,South,172,0.0,0.0,93,0.00,,,0.16,Wunderground v.1.15,2013-06-12 01:09:00,
2013-06-11 20:11:00,74.6,72.4,29.87,South,172,0.0,0.0,93,0.00,,,0.16,Wunderground v.1.15,2013-06-12 01:11:00,
2013-06-11 20:12:00,74.6,72.4,29.87,South,172,0.0,0.0,93,0.00,,,0.16,Wunderground v.1.15,2013-06-12 01:12:00,
2013-06-11 20:15:00,74.6,72.4,29.87,South,172,0.0,0.0,93,0.00,,,0.16,Wunderground v.1.15,2013-06-12 01:15:00,
2013-06-11 20:17:00,74.6,72.4,29.86,South,172,0.0,0.0,93,0.00,,,0.16,Wunderground v.1.15,2013-06-12 01:17:00,
2013-06-11 20:18:00,74.6,72.4,29.86,South,172,0.0,0.0,93,0.00,,,0.16,Wunderground v.1.15,2013-06-12 01:18:00,
2013-06-11 20:21:00,74.7,72.5,29.86,South,172,0.0,0.0,93,0.00,,,0.16,Wunderground v.1.15,2013-06-12 01:21:00,
2013-06-11 20:22:00,74.7,72.5,29.86,South,172,0.0,0.0,93,0.00,,,0.16,Wunderground v.1.15,2013-06-12 01:22:00,
2013-06-11 20:23:00,74.7,72.5,29.86,South,172,0.0,0.0,93,0.00,,,0.16,Wunderground v.1.15,2013-06-12 01:23:00,
2013-06-11 20:24:00,74.7,72.5,29.86,South,172,0.0,0.0,93,0.00,,,0.16,Wunderground v.1.15,2013-06-12 01:24:00,
2013-06-11 20:27:00,74.7,72.5,29.86,South,172,0.0,0.0,93,0.00,,,0.16,Wunderground v.1.15,2013-06-12 01:27:00,
2013-06-11 20:28:00,74.7,72.5,29.86,South,172,0.0,0.0,93,0.00,,,0.16,Wunderground v.1.15,2013-06-12 01:28:00,
2013-06-11 20:31:00,74.7,72.5,29.86,South,172,0.0,0.0,93,0.00,,,0.16,Wunderground v.1.15,2013-06-12 01:31:00,
2013-06-11 20:32:00,74.7,72.5,29.86,South,172,0.0,0.0,93,0.00,,,0.16,Wunderground v.1.15,2013-06-12 01:32:00,
2013-06-11 20:33:00,74.7,72.5,29.86,South,172,0.0,0.0,93,0.00,,,0.16,Wunderground v.1.15,2013-06-12 01:33:00,
2013-06-11 20:36:00,74.7,72.9,29.86,South,172,0.0,0.0,94,0.00,,,0.16,Wunderground v.1.15,2013-06-12 01:36:00,
2013-06-11 20:37:00,74.7,72.9,29.86,South,172,0.0,0.0,94,0.00,,,0.16,Wunderground v.1.15,2013-06-12 01:37:00,
2013-06-11 20:38:00,74.7,72.5,29.86,South,172,0.0,0.0,93,0.00,,,0.16,Wunderground v.1.15,2013-06-12 01:38:00,
2013-06-11 20:39:00,74.7,72.9,29.86,South,171,0.0,1.0,94,0.00,,,0.16,Wunderground v.1.15,2013-06-12 01:39:00,
2013-06-11 20:42:00,74.7,72.9,29.86,SSE,155,0.0,0.0,94,0.00,,,0.16,Wunderground v.1.15,2013-06-12 01:42:00,
2013-06-11 20:43:00,74.7,72.9,29.86,SSE,155,0.0,0.0,94,0.00,,,0.16,Wunderground v.1.15,2013-06-12 01:43:00,
2013-06-11 20:45:00,74.7,72.9,29.86,SSE,155,1.0,1.0,94,0.00,,,0.16,Wunderground v.1.15,2013-06-12 01:45:00,
2013-06-11 20:47:00,74.7,72.9,29.87,SSE,155,1.0,1.0,94,0.00,,,0.16,Wunderground v.1.15,2013-06-12 01:47:00,
2013-06-11 20:48:00,74.7,72.9,29.87,SSE,155,1.0,1.0,94,0.00,,,0.16,Wunderground v.1.15,2013-06-12 01:48:00,
2013-06-11 20:51:00,74.7,72.9,29.87,SSE,155,1.0,1.0,94,0.00,,,0.16,Wunderground v.1.15,2013-06-12 01:51:00,
2013-06-11 20:53:00,74.7,72.9,29.87,SSE,155,0.0,0.0,94,0.00,,,0.16,Wunderground v.1.15,2013-06-12 01:53:00,
2013-06-11 20:54:00,74.7,72.9,29.87,SSE,155,0.0,0.0,94,0.00,,,0.16,Wunderground v.1.15,2013-06-12 01:54:00,
2013-06-11 20:56:00,74.6,72.8,29.87,SSE,155,0.0,0.0,94,0.00,,,0.16,Wunderground v.1.15,2013-06-12 01:56:00,
2013-06-11 21:00:00,74.4,72.6,29.87,East,85,1.0,4.0,94,0.00,,,0.16,Wunderground v.1.15,2013-06-12 02:00:00,
2013-06-11 21:01:00,74.4,72.6,29.87,ENE,75,1.0,4.0,94,0.00,,,0.16,Wunderground v.1.15,2013-06-12 02:01:00,
2013-06-11 21:02:00,74.4,72.6,29.87,ENE,75,1.0,4.0,94,0.00,,,0.16,Wunderground v.1.15,2013-06-12 02:02:00,
2013-06-11 21:03:00,74.2,72.4,29.87,ENE,75,1.0,4.0,94,0.00,,,0.16,Wunderground v.1.15,2013-06-12 02:03:00,
2013-06-11 21:04:00,74.2,72.4,29.87,ENE,75,1.0,4.0,94,0.00,,,0.16,Wunderground v.1.15,2013-06-12 02:04:00,
2013-06-11 21:06:00,74.2,72.4,29.87,ENE,75,1.0,4.0,94,0.00,,,0.16,Wunderground v.1.15,2013-06-12 02:06:00,
2013-06-11 21:08:00,74.0,72.2,29.87,ENE,75,1.0,4.0,94,0.00,,,0.16,Wunderground v.1.15,2013-06-12 02:08:00,
2013-06-11 21:09:00,74.0,72.2,29.87,ENE,75,1.0,4.0,94,0.00,,,0.16,Wunderground v.1.15,2013-06-12 02:09:00,
2013-06-11 21:11:00,74.0,72.2,29.87,ENE,75,1.0,1.0,94,0.00,,,0.16,Wunderground v.1.15,2013-06-12 02:11:00,
2013-06-11 21:12:00,74.0,72.2,29.87,ENE,75,1.0,1.0,94,0.00,,,0.16,Wunderground v.1.15,2013-06-12 02:12:00,
2013-06-11 21:15:00,74.0,72.2,29.87,ENE,75,0.0,1.0,94,0.00,,,0.16,Wunderground v.1.15,2013-06-12 02:15:00,
2013-06-11 21:17:00,74.0,72.2,29.87,ENE,75,0.0,1.0,94,0.00,,,0.16,Wunderground v.1.15,2013-06-12 02:17:00,
2013-06-11 21:19:00,73.9,72.1,29.87,ENE,75,0.0,1.0,94,0.00,,,0.16,Wunderground v.1.15,2013-06-12 02:19:00,
2013-06-11 21:20:00,73.9,72.1,29.87,ENE,75,0.0,0.0,94,0.00,,,0.16,Wunderground v.1.15,2013-06-12 02:20:00,
2013-06-11 21:21:00,73.9,72.1,29.87,ENE,75,0.0,1.0,94,0.00,,,0.16,Wunderground v.1.15,2013-06-12 02:21:00,
2013-06-11 21:26:00,73.7,71.9,29.87,ENE,75,0.0,1.0,94,0.00,,,0.16,Wunderground v.1.15,2013-06-12 02:26:00,
2013-06-11 21:27:00,73.7,71.9,29.87,ENE,75,0.0,2.0,94,0.00,,,0.16,Wunderground v.1.15,2013-06-12 02:27:00,
2013-06-11 21:30:00,73.7,71.9,29.87,ENE,75,1.0,1.0,94,0.00,,,0.16,Wunderground v.1.15,2013-06-12 02:30:00,
2013-06-11 21:31:00,73.7,71.9,29.87,ENE,75,1.0,2.0,94,0.00,,,0.16,Wunderground v.1.15,2013-06-12 02:31:00,
2013-06-11 21:33:00,73.5,71.7,29.87,ENE,75,1.0,2.0,94,0.00,,,0.16,Wunderground v.1.15,2013-06-12 02:33:00,
2013-06-11 21:35:00,73.5,71.7,29.87,ENE,75,1.0,2.0,94,0.00,,,0.16,Wunderground v.1.15,2013-06-12 02:35:00,
2013-06-11 21:36:00,73.5,71.7,29.87,ENE,75,1.0,2.0,94,0.00,,,0.16,Wunderground v.1.15,2013-06-12 02:36:00,
2013-06-11 21:38:00,73.5,71.7,29.87,ENE,75,1.0,2.0,94,0.00,,,0.16,Wunderground v.1.15,2013-06-12 02:38:00,
2013-06-11 21:42:00,73.5,71.7,29.87,ENE,75,1.0,1.0,94,0.00,,,0.16,Wunderground v.1.15,2013-06-12 02:42:00,
2013-06-11 21:43:00,73.5,71.7,29.87,ENE,75,1.0,1.0,94,0.00,,,0.16,Wunderground v.1.15,2013-06-12 02:43:00,
2013-06-11 21:44:00,73.5,71.7,29.87,ENE,75,0.0,1.0,94,0.00,,,0.16,Wunderground v.1.15,2013-06-12 02:44:00,
2013-06-11 21:48:00,73.5,71.7,29.87,ENE,75,0.0,1.0,94,0.00,,,0.16,Wunderground v.1.15,2013-06-12 02:48:00,
2013-06-11 21:50:00,73.5,71.4,29.87,ENE,75,0.0,0.0,93,0.00,,,0.16,Wunderground v.1.15,2013-06-12 02:50:00,
2013-06-11 21:51:00,73.5,71.4,29.87,ENE,75,0.0,1.0,93,0.00,,,0.16,Wunderground v.1.15,2013-06-12 02:51:00,
2013-06-11 21:53:00,73.5,71.4,29.87,ENE,75,0.0,1.0,93,0.00,,,0.16,Wunderground v.1.15,2013-06-12 02:53:00,
2013-06-11 21:54:00,73.5,71.4,29.87,ENE,75,0.0,1.0,93,0.00,,,0.16,Wunderground v.1.15,2013-06-12 02:54:00,
2013-06-11 21:55:00,73.5,71.7,29.87,ENE,75,0.0,1.0,94,0.00,,,0.16,Wunderground v.1.15,2013-06-12 02:55:00,
2013-06-11 21:56:00,73.5,71.4,29.87,ENE,75,0.0,1.0,93,0.00,,,0.16,Wunderground v.1.15,2013-06-12 02:56:00,
2013-06-11 21:59:00,73.5,71.4,29.87,ENE,75,0.0,1.0,93,0.00,,,0.16,Wunderground v.1.15,2013-06-12 02:59:00,
2013-06-11 22:01:00,73.5,71.4,29.87,ENE,75,0.0,0.0,93,0.00,,,0.16,Wunderground v.1.15,2013-06-12 03:01:00,
2013-06-11 22:02:00,73.5,71.4,29.88,ENE,75,0.0,0.0,93,0.00,,,0.16,Wunderground v.1.15,2013-06-12 03:02:00,
2013-06-11 22:03:00,73.5,71.4,29.88,ENE,75,0.0,0.0,93,0.00,,,0.16,Wunderground v.1.15,2013-06-12 03:03:00,
2013-06-11 22:06:00,73.5,71.4,29.88,ENE,75,0.0,0.0,93,0.00,,,0.16,Wunderground v.1.15,2013-06-12 03:06:00,
2013-06-11 22:07:00,73.5,71.4,29.88,ENE,75,0.0,0.0,93,0.00,,,0.16,Wunderground v.1.15,2013-06-12 03:07:00,
2013-06-11 22:08:00,73.5,71.4,29.88,ENE,75,0.0,0.0,93,0.00,,,0.16,Wunderground v.1.15,2013-06-12 03:08:00,
2013-06-11 22:09:00,73.5,71.4,29.88,ENE,75,0.0,0.0,93,0.00,,,0.16,Wunderground v.1.15,2013-06-12 03:09:00,
2013-06-11 22:11:00,73.5,71.4,29.88,ENE,75,0.0,0.0,93,0.00,,,0.16,Wunderground v.1.15,2013-06-12 03:11:00,
2013-06-11 22:13:00,73.5,71.4,29.88,ENE,75,0.0,1.0,93,0.00,,,0.16,Wunderground v.1.15,2013-06-12 03:13:00,
2013-06-11 22:14:00,73.5,71.4,29.88,ENE,75,0.0,1.0,93,0.00,,,0.16,Wunderground v.1.15,2013-06-12 03:14:00,
2013-06-11 22:15:00,73.5,71.4,29.88,ENE,75,0.0,2.0,93,0.00,,,0.16,Wunderground v.1.15,2013-06-12 03:15:00,
2013-06-11 22:19:00,73.5,71.4,29.89,ENE,75,0.0,2.0,93,0.00,,,0.16,Wunderground v.1.15,2013-06-12 03:19:00,
2013-06-11 22:23:00,73.5,71.4,29.89,ENE,75,0.0,0.0,93,0.00,,,0.16,Wunderground v.1.15,2013-06-12 03:23:00,
2013-06-11 22:24:00,73.5,71.4,29.89,ENE,75,0.0,1.0,93,0.00,,,0.16,Wunderground v.1.15,2013-06-12 03:24:00,
2013-06-11 22:25:00,73.5,71.4,29.89,ENE,75,0.0,1.0,93,0.00,,,0.16,Wunderground v.1.15,2013-06-12 03:25:00,
2013-06-11 22:26:00,73.5,71.4,29.89,ENE,75,0.0,1.0,93,0.00,,,0.16,Wunderground v.1.15,2013-06-12 03:26:00,
2013-06-11 22:29:00,73.5,71.4,29.89,ENE,75,0.0,1.0,93,0.00,,,0.16,Wunderground v.1.15,2013-06-12 03:29:00,
2013-06-11 22:31:00,73.5,71.4,29.89,ENE,75,0.0,0.0,93,0.00,,,0.16,Wunderground v.1.15,2013-06-12 03:31:00,
2013-06-11 22:33:00,73.5,71.4,29.89,ENE,75,0.0,0.0,93,0.00,,,0.16,Wunderground v.1.15,2013-06-12 03:33:00,
2013-06-11 22:36:00,73.5,71.4,29.89,ENE,75,0.0,0.0,93,0.00,,,0.16,Wunderground v.1.15,2013-06-12 03:36:00,
2013-06-11 22:37:00,73.5,71.4,29.89,ENE,75,0.0,0.0,93,0.00,,,0.16,Wunderground v.1.15,2013-06-12 03:37:00,
2013-06-11 22:38:00,73.7,71.5,29.89,ENE,75,0.0,0.0,93,0.00,,,0.16,Wunderground v.1.15,2013-06-12 03:38:00,
2013-06-11 22:41:00,73.7,71.5,29.89,ENE,75,0.0,0.0,93,0.00,,,0.16,Wunderground v.1.15,2013-06-12 03:41:00,
2013-06-11 22:44:00,73.7,71.2,29.89,ENE,75,0.0,0.0,92,0.00,,,0.16,Wunderground v.1.15,2013-06-12 03:44:00,
2013-06-11 22:46:00,73.7,71.2,29.90,ENE,75,0.0,0.0,92,0.00,,,0.16,Wunderground v.1.15,2013-06-12 03:46:00,
2013-06-11 22:47:00,73.7,71.2,29.90,ENE,75,0.0,0.0,92,0.00,,,0.16,Wunderground v.1.15,2013-06-12 03:47:00,
2013-06-11 22:48:00,73.7,71.2,29.90,ENE,75,0.0,1.0,92,0.00,,,0.16,Wunderground v.1.15,2013-06-12 03:48:00,
2013-06-11 22:53:00,73.7,71.2,29.90,ENE,75,0.0,0.0,92,0.00,,,0.16,Wunderground v.1.15,2013-06-12 03:53:00,
2013-06-11 22:54:00,73.7,71.2,29.90,ENE,75,0.0,0.0,92,0.00,,,0.16,Wunderground v.1.15,2013-06-12 03:54:00,
2013-06-11 22:56:00,73.7,71.2,29.90,ENE,75,0.0,1.0,92,0.00,,,0.16,Wunderground v.1.15,2013-06-12 03:56:00,
2013-06-11 22:58:00,73.9,71.4,29.90,ENE,75,0.0,1.0,92,0.00,,,0.16,Wunderground v.1.15,2013-06-12 03:58:00,
2013-06-11 22:59:00,73.9,71.4,29.90,ENE,75,0.0,1.0,92,0.00,,,0.16,Wunderground v.1.15,2013-06-12 03:59:00,
2013-06-11 23:01:00,73.9,71.4,29.90,ENE,75,0.0,0.0,92,0.00,,,0.16,Wunderground v.1.15,2013-06-12 04:01:00,
2013-06-11 23:02:00,73.9,71.4,29.90,ENE,75,0.0,0.0,92,0.00,,,0.16,Wunderground v.1.15,2013-06-12 04:02:00,
2013-06-11 23:04:00,73.9,71.4,29.90,ENE,75,0.0,0.0,92,0.00,,,0.16,Wunderground v.1.15,2013-06-12 04:04:00,
2013-06-11 23:05:00,73.9,71.4,29.90,ENE,75,0.0,0.0,92,0.00,,,0.16,Wunderground v.1.15,2013-06-12 04:05:00,
2013-06-11 23:06:00,73.9,71.4,29.90,ENE,75,0.0,0.0,92,0.00,,,0.16,Wunderground v.1.15,2013-06-12 04:06:00,
2013-06-11 23:07:00,73.9,71.4,29.90,ENE,75,0.0,0.0,92,0.00,,,0.16,Wunderground v.1.15,2013-06-12 04:07:00,
2013-06-11 23:09:00,73.9,71.4,29.90,ENE,75,0.0,0.0,92,0.00,,,0.16,Wunderground v.1.15,2013-06-12 04:09:00,
2013-06-11 23:11:00,73.9,71.4,29.90,ENE,75,0.0,0.0,92,0.00,,,0.16,Wunderground v.1.15,2013-06-12 04:11:00,
2013-06-11 23:14:00,73.9,71.4,29.90,ENE,75,0.0,0.0,92,0.00,,,0.16,Wunderground v.1.15,2013-06-12 04:14:00,
2013-06-11 23:15:00,73.9,71.4,29.90,ENE,75,0.0,0.0,92,0.00,,,0.16,Wunderground v.1.15,2013-06-12 04:15:00,
2013-06-11 23:17:00,73.9,71.4,29.90,ENE,75,0.0,0.0,92,0.00,,,0.16,Wunderground v.1.15,2013-06-12 04:17:00,
2013-06-11 23:18:00,73.9,71.4,29.90,ENE,75,0.0,0.0,92,0.00,,,0.16,Wunderground v.1.15,2013-06-12 04:18:00,
2013-06-11 23:21:00,73.9,71.4,29.90,ENE,75,0.0,0.0,92,0.00,,,0.16,Wunderground v.1.15,2013-06-12 04:21:00,
2013-06-11 23:22:00,73.9,71.4,29.90,ENE,75,0.0,1.0,92,0.00,,,0.16,Wunderground v.1.15,2013-06-12 04:22:00,
2013-06-11 23:23:00,73.9,71.4,29.90,ENE,75,0.0,1.0,92,0.00,,,0.16,Wunderground v.1.15,2013-06-12 04:23:00,
2013-06-11 23:24:00,73.9,71.4,29.90,ENE,75,0.0,1.0,92,0.00,,,0.16,Wunderground v.1.15,2013-06-12 04:24:00,
2013-06-11 23:26:00,73.9,71.1,29.90,ENE,75,0.0,1.0,91,0.00,,,0.16,Wunderground v.1.15,2013-06-12 04:26:00,
2013-06-11 23:28:00,73.9,71.1,29.90,ENE,75,0.0,1.0,91,0.00,,,0.16,Wunderground v.1.15,2013-06-12 04:28:00,
2013-06-11 23:31:00,74.0,71.2,29.90,ENE,75,0.0,0.0,91,0.00,,,0.16,Wunderground v.1.15,2013-06-12 04:31:00,
2013-06-11 23:32:00,74.0,71.2,29.90,ENE,75,0.0,0.0,91,0.00,,,0.16,Wunderground v.1.15,2013-06-12 04:32:00,
2013-06-11 23:34:00,74.0,71.2,29.90,ENE,75,0.0,0.0,91,0.00,,,0.16,Wunderground v.1.15,2013-06-12 04:34:00,
2013-06-11 23:35:00,74.0,71.2,29.90,ENE,75,0.0,0.0,91,0.00,,,0.16,Wunderground v.1.15,2013-06-12 04:35:00,
2013-06-11 23:37:00,74.0,71.2,29.90,ENE,75,0.0,0.0,91,0.00,,,0.16,Wunderground v.1.15,2013-06-12 04:37:00,
2013-06-11 23:38:00,74.0,71.2,29.90,ENE,75,0.0,0.0,91,0.00,,,0.16,Wunderground v.1.15,2013-06-12 04:38:00,
2013-06-11 23:39:00,74.0,71.2,29.90,ENE,75,0.0,0.0,91,0.00,,,0.16,Wunderground v.1.15,2013-06-12 04:39:00,
2013-06-11 23:44:00,74.0,71.2,29.90,ENE,75,0.0,0.0,91,0.00,,,0.16,Wunderground v.1.15,2013-06-12 04:44:00,
2013-06-11 23:45:00,74.0,71.2,29.90,ENE,75,0.0,0.0,91,0.00,,,0.16,Wunderground v.1.15,2013-06-12 04:45:00,
2013-06-11 23:46:00,74.0,71.2,29.91,ENE,75,0.0,0.0,91,0.00,,,0.16,Wunderground v.1.15,2013-06-12 04:46:00,
2013-06-11 23:48:00,74.0,71.2,29.91,ENE,75,0.0,0.0,91,0.00,,,0.16,Wunderground v.1.15,2013-06-12 04:48:00,
2013-06-11 23:51:00,74.0,70.9,29.91,ENE,75,0.0,0.0,90,0.00,,,0.16,Wunderground v.1.15,2013-06-12 04:51:00,
2013-06-11 23:52:00,74.2,71.1,29.91,ENE,76,0.0,0.0,90,0.00,,,0.16,Wunderground v.1.15,2013-06-12 04:52:00,
2013-06-11 23:53:00,74.2,71.1,29.91,ENE,76,0.0,0.0,90,0.00,,,0.16,Wunderground v.1.15,2013-06-12 04:53:00,
2013-06-11 23:58:00,74.2,71.1,29.91,ENE,76,0.0,0.0,90,0.00,,,0.16,Wunderground v.1.15,2013-06-12 04:58:00,
2013-06-11 23:59:00,74.2,71.1,29.91,ENE,76,0.0,2.0,90,0.00,,,0.16,Wunderground v.1.15,2013-06-12 04:59:00,